
Distance (Route):
Temperature : -24.4°C
Humidity : 0%
Pressure : 0hPa| Receiver | Frames | First received | Last received |
|---|---|---|---|
| KE7DJD | 437 | 2026-09-04 23:03:55 | 2026-09-05 01:40:39 |
| Receiver | Date | Latitude | Longitude | Direction | Speed | Altitude | Climb | Temperature | Humidity | Pressure | Voltage | Killtimer | Uptime | BKT | XDATA |
|---|---|---|---|---|---|---|---|---|---|---|---|---|---|---|---|
| KE7DJD | 2026-09-05 01:40:39 | 42.12392 | -114.47158 | 42° | 133km/h | 8768m | -3.4m/s | -24.4°C | 0% | 0hPa | 0V | 00:00:00 | 00:00:00 | 00:00:00 | |
| KE7DJD | 2026-09-05 01:40:18 | 42.11861 | -114.47829 | 45° | 141km/h | 8839m | -3.4m/s | -24.9°C | 0% | 0hPa | 0V | 00:00:00 | 00:00:00 | 00:00:00 | |
| KE7DJD | 2026-09-05 01:39:57 | 42.11348 | -114.48512 | 46° | 150km/h | 8907m | -3.8m/s | -25.5°C | 0% | 0hPa | 0V | 00:00:00 | 00:00:00 | 00:00:00 | |
| KE7DJD | 2026-09-05 01:39:37 | 42.10757 | -114.49219 | 42° | 148km/h | 8978m | -3.1m/s | -26.1°C | 0% | 0hPa | 0V | 00:00:00 | 00:00:00 | 00:00:00 | |
| KE7DJD | 2026-09-05 01:39:15 | 42.10203 | -114.49901 | 48° | 141km/h | 9050m | -3.8m/s | -26.6°C | 0% | 0hPa | 0V | 00:00:00 | 00:00:00 | 00:00:00 | |
| KE7DJD | 2026-09-05 01:38:55 | 42.09646 | -114.50653 | 43° | 148km/h | 9122m | -3.8m/s | -26.8°C | 0% | 0hPa | 0V | 00:00:00 | 00:00:00 | 00:00:00 | |
| KE7DJD | 2026-09-05 01:38:34 | 42.09116 | -114.51318 | 48° | 144km/h | 9191m | -3.6m/s | -27.1°C | 0% | 0hPa | 0V | 00:00:00 | 00:00:00 | 00:00:00 | |
| KE7DJD | 2026-09-05 01:38:14 | 42.08546 | -114.52067 | 44° | 148km/h | 9262m | -3.6m/s | -27.6°C | 0% | 0hPa | 0V | 00:00:00 | 00:00:00 | 00:00:00 | |
| KE7DJD | 2026-09-05 01:37:53 | 42.08006 | -114.52728 | 45° | 139km/h | 9331m | -3.9m/s | -28.0°C | 0% | 0hPa | 0V | 00:00:00 | 00:00:00 | 00:00:00 | |
| KE7DJD | 2026-09-05 01:37:33 | 42.07453 | -114.53471 | 44° | 150km/h | 9403m | -3.7m/s | -28.6°C | 0% | 0hPa | 0V | 00:00:00 | 00:00:00 | 00:00:00 | |
| KE7DJD | 2026-09-05 01:37:12 | 42.06868 | -114.54195 | 41° | 146km/h | 9477m | -3.7m/s | -29.0°C | 0% | 0hPa | 0V | 00:00:00 | 00:00:00 | 00:00:00 | |
| KE7DJD | 2026-09-05 01:36:51 | 42.06337 | -114.54873 | 45° | 150km/h | 9546m | -3.2m/s | -29.4°C | 0% | 0hPa | 0V | 00:00:00 | 00:00:00 | 00:00:00 | |
| KE7DJD | 2026-09-05 01:36:31 | 42.05767 | -114.55570 | 46° | 139km/h | 9618m | -3.4m/s | -29.9°C | 0% | 0hPa | 0V | 00:00:00 | 00:00:00 | 00:00:00 | |
| KE7DJD | 2026-09-05 01:36:10 | 42.05251 | -114.56289 | 46° | 153km/h | 9686m | -3.5m/s | -30.5°C | 0% | 0hPa | 0V | 00:00:00 | 00:00:00 | 00:00:00 | |
| KE7DJD | 2026-09-05 01:35:50 | 42.04677 | -114.57033 | 47° | 150km/h | 9759m | -3.1m/s | -31.1°C | 0% | 0hPa | 0V | 00:00:00 | 00:00:00 | 00:00:00 | |
| KE7DJD | 2026-09-05 01:35:29 | 42.04114 | -114.57735 | 44° | 142km/h | 9826m | -3.5m/s | -31.6°C | 0% | 0hPa | 0V | 00:00:00 | 00:00:00 | 00:00:00 | |
| KE7DJD | 2026-09-05 01:35:09 | 42.03559 | -114.58504 | 47° | 157km/h | 9894m | -3.1m/s | -32.1°C | 0% | 0hPa | 0V | 00:00:00 | 00:00:00 | 00:00:00 | |
| KE7DJD | 2026-09-05 01:34:48 | 42.02974 | -114.59204 | 42° | 144km/h | 9957m | -3.3m/s | -32.6°C | 0% | 0hPa | 0V | 00:00:00 | 00:00:00 | 00:00:00 | |
| KE7DJD | 2026-09-05 01:34:27 | 42.02388 | -114.59953 | 45° | 155km/h | 10021m | -3.4m/s | -33.1°C | 0% | 0hPa | 0V | 00:00:00 | 00:00:00 | 00:00:00 | |
| KE7DJD | 2026-09-05 01:34:07 | 42.01800 | -114.60667 | 41° | 157km/h | 10081m | -2.9m/s | -33.6°C | 0% | 0hPa | 0V | 00:00:00 | 00:00:00 | 00:00:00 | |
| KE7DJD | 2026-09-05 01:33:47 | 42.01208 | -114.61384 | 42° | 159km/h | 10142m | -2.7m/s | -34.2°C | 0% | 0hPa | 0V | 00:00:00 | 00:00:00 | 00:00:00 | |
| KE7DJD | 2026-09-05 01:33:26 | 42.00640 | -114.62049 | 46° | 153km/h | 10201m | -3.2m/s | -34.6°C | 0% | 0hPa | 0V | 00:00:00 | 00:00:00 | 00:00:00 | |
| KE7DJD | 2026-09-05 01:33:06 | 42.00042 | -114.62770 | 46° | 153km/h | 10261m | -3.3m/s | -35.0°C | 0% | 0hPa | 0V | 00:00:00 | 00:00:00 | 00:00:00 | |
| KE7DJD | 2026-09-05 01:32:45 | 41.99412 | -114.63516 | 41° | 148km/h | 10321m | -3.1m/s | -35.3°C | 0% | 0hPa | 0V | 00:00:00 | 00:00:00 | 00:00:00 | |
| KE7DJD | 2026-09-05 01:32:25 | 41.98823 | -114.64245 | 43° | 168km/h | 10379m | -2.8m/s | -35.5°C | 0% | 0hPa | 0V | 00:00:00 | 00:00:00 | 00:00:00 | |
| KE7DJD | 2026-09-05 01:32:04 | 41.98179 | -114.64987 | 45° | 161km/h | 10442m | -3.2m/s | -35.7°C | 0% | 0hPa | 0V | 00:00:00 | 00:00:00 | 00:00:00 | |
| KE7DJD | 2026-09-05 01:31:43 | 41.97546 | -114.65720 | 40° | 155km/h | 10502m | -3.1m/s | -35.9°C | 0% | 0hPa | 0V | 00:00:00 | 00:00:00 | 00:00:00 | |
| KE7DJD | 2026-09-05 01:31:22 | 41.96899 | -114.66478 | 39° | 161km/h | 10568m | -3.3m/s | -36.4°C | 0% | 0hPa | 0V | 00:00:00 | 00:00:00 | 00:00:00 | |
| KE7DJD | 2026-09-05 01:31:02 | 41.96277 | -114.67223 | 39° | 164km/h | 10636m | -3.2m/s | -36.9°C | 0% | 0hPa | 0V | 00:00:00 | 00:00:00 | 00:00:00 | |
| KE7DJD | 2026-09-05 01:30:42 | 41.95625 | -114.67894 | 41° | 166km/h | 10704m | -3.5m/s | -37.4°C | 0% | 0hPa | 0V | 00:00:00 | 00:00:00 | 00:00:00 | |
| KE7DJD | 2026-09-05 01:30:21 | 41.94979 | -114.68555 | 42° | 157km/h | 10775m | -3.8m/s | -37.9°C | 0% | 0hPa | 0V | 00:00:00 | 00:00:00 | 00:00:00 | |
| KE7DJD | 2026-09-05 01:30:01 | 41.94308 | -114.69286 | 41° | 155km/h | 10852m | -3.8m/s | -38.2°C | 0% | 0hPa | 0V | 00:00:00 | 00:00:00 | 00:00:00 | |
| KE7DJD | 2026-09-05 01:29:40 | 41.93668 | -114.70008 | 38° | 162km/h | 10926m | -4.1m/s | -38.6°C | 0% | 0hPa | 0V | 00:00:00 | 00:00:00 | 00:00:00 | |
| KE7DJD | 2026-09-05 01:29:20 | 41.93018 | -114.70752 | 40° | 172km/h | 11004m | -3.7m/s | -39.3°C | 0% | 0hPa | 0V | 00:00:00 | 00:00:00 | 00:00:00 | |
| KE7DJD | 2026-09-05 01:28:59 | 41.92396 | -114.71449 | 42° | 170km/h | 11079m | -4.0m/s | -39.8°C | 0% | 0hPa | 0V | 00:00:00 | 00:00:00 | 00:00:00 | |
| KE7DJD | 2026-09-05 01:28:39 | 41.91741 | -114.72174 | 44° | 162km/h | 11156m | -3.8m/s | -40.3°C | 0% | 0hPa | 0V | 00:00:00 | 00:00:00 | 00:00:00 | |
| KE7DJD | 2026-09-05 01:28:18 | 41.91104 | -114.72878 | 39° | 153km/h | 11226m | -3.5m/s | -40.5°C | 0% | 0hPa | 0V | 00:00:00 | 00:00:00 | 00:00:00 | |
| KE7DJD | 2026-09-05 01:27:58 | 41.90474 | -114.73614 | 40° | 164km/h | 11297m | -3.3m/s | -40.9°C | 0% | 0hPa | 0V | 00:00:00 | 00:00:00 | 00:00:00 | |
| KE7DJD | 2026-09-05 01:27:37 | 41.89864 | -114.74280 | 44° | 161km/h | 11363m | -3.3m/s | -41.3°C | 0% | 0hPa | 0V | 00:00:00 | 00:00:00 | 00:00:00 | |
| KE7DJD | 2026-09-05 01:27:17 | 41.89230 | -114.74982 | 42° | 159km/h | 11432m | -3.3m/s | -41.6°C | 0% | 0hPa | 0V | 00:00:00 | 00:00:00 | 00:00:00 | |
| KE7DJD | 2026-09-05 01:26:55 | 41.88597 | -114.75653 | 43° | 151km/h | 11499m | -3.5m/s | -41.9°C | 0% | 0hPa | 0V | 00:00:00 | 00:00:00 | 00:00:00 | |
| KE7DJD | 2026-09-05 01:26:35 | 41.88002 | -114.76293 | 44° | 148km/h | 11564m | -3.5m/s | -42.3°C | 0% | 0hPa | 0V | 00:00:00 | 00:00:00 | 00:00:00 | |
| KE7DJD | 2026-09-05 01:26:14 | 41.87379 | -114.76965 | 42° | 142km/h | 11632m | -3.6m/s | -42.8°C | 0% | 0hPa | 0V | 00:00:00 | 00:00:00 | 00:00:00 | |
| KE7DJD | 2026-09-05 01:25:54 | 41.86793 | -114.77615 | 41° | 141km/h | 11699m | -3.8m/s | -43.1°C | 0% | 0hPa | 0V | 00:00:00 | 00:00:00 | 00:00:00 | |
| KE7DJD | 2026-09-05 01:25:34 | 41.86203 | -114.78308 | 41° | 141km/h | 11770m | -3.6m/s | -43.6°C | 0% | 0hPa | 0V | 00:00:00 | 00:00:00 | 00:00:00 | |
| KE7DJD | 2026-09-05 01:25:13 | 41.85650 | -114.78977 | 39° | 148km/h | 11842m | -3.6m/s | -43.9°C | 0% | 0hPa | 0V | 00:00:00 | 00:00:00 | 00:00:00 | |
| KE7DJD | 2026-09-05 01:24:53 | 41.85080 | -114.79647 | 43° | 155km/h | 11919m | -3.8m/s | -44.1°C | 0% | 0hPa | 0V | 00:00:00 | 00:00:00 | 00:00:00 | |
| KE7DJD | 2026-09-05 01:24:32 | 41.84537 | -114.80282 | 46° | 148km/h | 11996m | -3.7m/s | -44.5°C | 0% | 0hPa | 0V | 00:00:00 | 00:00:00 | 00:00:00 | |
| KE7DJD | 2026-09-05 01:24:12 | 41.83977 | -114.80962 | 47° | 148km/h | 12078m | -3.8m/s | -44.7°C | 0% | 0hPa | 0V | 00:00:00 | 00:00:00 | 00:00:00 | |
| KE7DJD | 2026-09-05 01:23:51 | 41.83415 | -114.81649 | 48° | 144km/h | 12160m | -3.9m/s | -45.2°C | 0% | 0hPa | 0V | 00:00:00 | 00:00:00 | 00:00:00 | |
| KE7DJD | 2026-09-05 01:23:31 | 41.82892 | -114.82299 | 49° | 139km/h | 12235m | -3.6m/s | -45.6°C | 0% | 0hPa | 0V | 00:00:00 | 00:00:00 | 00:00:00 | |
| KE7DJD | 2026-09-05 01:23:10 | 41.82374 | -114.82958 | 47° | 131km/h | 12306m | -3.3m/s | -46.2°C | 0% | 0hPa | 0V | 00:00:00 | 00:00:00 | 00:00:00 | |
| KE7DJD | 2026-09-05 01:22:50 | 41.81840 | -114.83640 | 46° | 130km/h | 12377m | -3.0m/s | -46.6°C | 0% | 0hPa | 0V | 00:00:00 | 00:00:00 | 00:00:00 | |
| KE7DJD | 2026-09-05 01:21:48 | 41.80286 | -114.85600 | 42° | 133km/h | 12559m | -3.2m/s | -47.3°C | 0% | 0hPa | 0V | 00:00:00 | 00:00:00 | 00:00:00 | |
| KE7DJD | 2026-09-05 01:21:28 | 41.79773 | -114.86262 | 40° | 139km/h | 12622m | -3.2m/s | -47.1°C | 0% | 0hPa | 0V | 00:00:00 | 00:00:00 | 00:00:00 | |
| KE7DJD | 2026-09-05 01:21:06 | 41.79249 | -114.86900 | 42° | 146km/h | 12693m | -3.6m/s | -45.9°C | 0% | 0hPa | 0V | 00:00:00 | 00:00:00 | 00:00:00 | |
| KE7DJD | 2026-09-05 01:20:45 | 41.78721 | -114.87561 | 41° | 139km/h | 12775m | -4.1m/s | -45.8°C | 0% | 0hPa | 0V | 00:00:00 | 00:00:00 | 00:00:00 | |
| KE7DJD | 2026-09-05 01:20:25 | 41.78252 | -114.88216 | 53° | 135km/h | 12866m | -4.8m/s | -46.0°C | 0% | 0hPa | 0V | 00:00:00 | 00:00:00 | 00:00:00 | |
| KE7DJD | 2026-09-05 01:20:04 | 41.77811 | -114.88897 | 56° | 126km/h | 12964m | -5.0m/s | -46.5°C | 0% | 0hPa | 0V | 00:00:00 | 00:00:00 | 00:00:00 | |
| KE7DJD | 2026-09-05 01:19:42 | 41.77391 | -114.89599 | 57° | 119km/h | 13072m | -5.1m/s | -47.3°C | 0% | 0hPa | 0V | 00:00:00 | 00:00:00 | 00:00:00 | |
| KE7DJD | 2026-09-05 01:19:22 | 41.77025 | -114.90266 | 59° | 113km/h | 13176m | -5.2m/s | -47.6°C | 0% | 0hPa | 0V | 00:00:00 | 00:00:00 | 00:00:00 | |
| KE7DJD | 2026-09-05 01:19:02 | 41.76653 | -114.90961 | 57° | 106km/h | 13286m | -5.4m/s | -48.4°C | 0% | 0hPa | 0V | 00:00:00 | 00:00:00 | 00:00:00 | |
| KE7DJD | 2026-09-05 01:18:41 | 41.76310 | -114.91595 | 56° | 100km/h | 13392m | -5.2m/s | -47.7°C | 0% | 0hPa | 0V | 00:00:00 | 00:00:00 | 00:00:00 | |
| KE7DJD | 2026-09-05 01:18:20 | 41.75933 | -114.92187 | 49° | 102km/h | 13488m | -4.7m/s | -47.8°C | 0% | 0hPa | 0V | 00:00:00 | 00:00:00 | 00:00:00 | |
| KE7DJD | 2026-09-05 01:18:01 | 41.75600 | -114.92746 | 47° | 106km/h | 13581m | -4.3m/s | -48.0°C | 0% | 0hPa | 0V | 00:00:00 | 00:00:00 | 00:00:00 | |
| KE7DJD | 2026-09-05 01:17:40 | 41.75277 | -114.93335 | 52° | 115km/h | 13672m | -4.0m/s | -48.2°C | 0% | 0hPa | 0V | 00:00:00 | 00:00:00 | 00:00:00 | |
| KE7DJD | 2026-09-05 01:17:19 | 41.74944 | -114.93901 | 55° | 119km/h | 13753m | -3.5m/s | -48.6°C | 0% | 0hPa | 0V | 00:00:00 | 00:00:00 | 00:00:00 | |
| KE7DJD | 2026-09-05 01:16:59 | 41.74592 | -114.94517 | 58° | 119km/h | 13833m | -3.5m/s | -49.0°C | 0% | 0hPa | 0V | 00:00:00 | 00:00:00 | 00:00:00 | |
| KE7DJD | 2026-09-05 01:16:38 | 41.74249 | -114.95093 | 58° | 95km/h | 13907m | -3.6m/s | -48.4°C | 0% | 0hPa | 0V | 00:00:00 | 00:00:00 | 00:00:00 | |
| KE7DJD | 2026-09-05 01:16:18 | 41.73913 | -114.95675 | 52° | 89km/h | 13986m | -3.8m/s | -48.6°C | 0% | 0hPa | 0V | 00:00:00 | 00:00:00 | 00:00:00 | |
| KE7DJD | 2026-09-05 01:15:57 | 41.73579 | -114.96198 | 44° | 93km/h | 14064m | -4.2m/s | -48.8°C | 0% | 0hPa | 0V | 00:00:00 | 00:00:00 | 00:00:00 | |
| KE7DJD | 2026-09-05 01:15:37 | 41.73246 | -114.96708 | 43° | 99km/h | 14150m | -4.0m/s | -49.0°C | 0% | 0hPa | 0V | 00:00:00 | 00:00:00 | 00:00:00 | |
| KE7DJD | 2026-09-05 01:15:16 | 41.72918 | -114.97186 | 41° | 104km/h | 14239m | -4.1m/s | -49.5°C | 0% | 0hPa | 0V | 00:00:00 | 00:00:00 | 00:00:00 | |
| KE7DJD | 2026-09-05 01:14:56 | 41.72541 | -114.97620 | 46° | 108km/h | 14330m | -4.3m/s | -50.0°C | 0% | 0hPa | 0V | 00:00:00 | 00:00:00 | 00:00:00 | |
| KE7DJD | 2026-09-05 01:14:34 | 41.72145 | -114.98109 | 49° | 111km/h | 14430m | -4.5m/s | -50.3°C | 0% | 0hPa | 0V | 00:00:00 | 00:00:00 | 00:00:00 | |
| KE7DJD | 2026-09-05 01:14:14 | 41.71769 | -114.98595 | 47° | 106km/h | 14528m | -4.9m/s | -50.8°C | 0% | 0hPa | 0V | 00:00:00 | 00:00:00 | 00:00:00 | |
| KE7DJD | 2026-09-05 01:13:53 | 41.71384 | -114.99058 | 49° | 104km/h | 14637m | -5.5m/s | -50.2°C | 0% | 0hPa | 0V | 00:00:00 | 00:00:00 | 00:00:00 | |
| KE7DJD | 2026-09-05 01:13:13 | 41.70683 | -114.99909 | 44° | 88km/h | 14854m | -5.6m/s | -50.8°C | 0% | 0hPa | 0V | 00:00:00 | 00:00:00 | 00:00:00 | |
| KE7DJD | 2026-09-05 01:12:52 | 41.70317 | -115.00251 | 39° | 73km/h | 14962m | -5.4m/s | -50.2°C | 0% | 0hPa | 0V | 00:00:00 | 00:00:00 | 00:00:00 | |
| KE7DJD | 2026-09-05 01:12:32 | 41.69989 | -115.00581 | 35° | 64km/h | 15071m | -4.7m/s | -49.9°C | 0% | 0hPa | 0V | 00:00:00 | 00:00:00 | 00:00:00 | |
| KE7DJD | 2026-09-05 01:12:11 | 41.69730 | -115.00844 | 28° | 55km/h | 15175m | -5.2m/s | -49.3°C | 0% | 0hPa | 0V | 00:00:00 | 00:00:00 | 00:00:00 | |
| KE7DJD | 2026-09-05 01:11:51 | 41.69483 | -115.01082 | 22° | 51km/h | 15285m | -5.3m/s | -49.7°C | 0% | 0hPa | 0V | 00:00:00 | 00:00:00 | 00:00:00 | |
| KE7DJD | 2026-09-05 01:11:30 | 41.69256 | -115.01258 | 15° | 51km/h | 15395m | -5.1m/s | -50.5°C | 0% | 0hPa | 0V | 00:00:00 | 00:00:00 | 00:00:00 | |
| KE7DJD | 2026-09-05 01:11:10 | 41.69041 | -115.01394 | 19° | 60km/h | 15499m | -4.8m/s | -50.9°C | 0% | 0hPa | 0V | 00:00:00 | 00:00:00 | 00:00:00 | |
| KE7DJD | 2026-09-05 01:10:49 | 41.68803 | -115.01496 | 18° | 62km/h | 15597m | -4.6m/s | -51.5°C | 0% | 0hPa | 0V | 00:00:00 | 00:00:00 | 00:00:00 | |
| KE7DJD | 2026-09-05 01:10:29 | 41.68560 | -115.01614 | 15° | 60km/h | 15698m | -5.0m/s | -52.3°C | 0% | 0hPa | 0V | 00:00:00 | 00:00:00 | 00:00:00 | |
| KE7DJD | 2026-09-05 01:10:07 | 41.68302 | -115.01752 | 16° | 60km/h | 15801m | -5.1m/s | -53.2°C | 0% | 0hPa | 0V | 00:00:00 | 00:00:00 | 00:00:00 | |
| KE7DJD | 2026-09-05 01:09:47 | 41.68019 | -115.01932 | 16° | 64km/h | 15904m | -4.5m/s | -54.1°C | 0% | 0hPa | 0V | 00:00:00 | 00:00:00 | 00:00:00 | |
| KE7DJD | 2026-09-05 01:09:26 | 41.67732 | -115.02130 | 20° | 73km/h | 15998m | -4.5m/s | -54.5°C | 0% | 0hPa | 0V | 00:00:00 | 00:00:00 | 00:00:00 | |
| KE7DJD | 2026-09-05 01:09:06 | 41.67445 | -115.02338 | 20° | 75km/h | 16089m | -4.8m/s | -54.7°C | 0% | 0hPa | 0V | 00:00:00 | 00:00:00 | 00:00:00 | |
| KE7DJD | 2026-09-05 01:08:45 | 41.67133 | -115.02580 | 23° | 69km/h | 16185m | -4.4m/s | -54.0°C | 0% | 0hPa | 0V | 00:00:00 | 00:00:00 | 00:00:00 | |
| KE7DJD | 2026-09-05 01:08:25 | 41.66857 | -115.02844 | 26° | 71km/h | 16277m | -4.5m/s | -54.0°C | 0% | 0hPa | 0V | 00:00:00 | 00:00:00 | 00:00:00 | |
| KE7DJD | 2026-09-05 01:08:04 | 41.66570 | -115.03143 | 30° | 68km/h | 16374m | -4.9m/s | -54.4°C | 0% | 0hPa | 0V | 00:00:00 | 00:00:00 | 00:00:00 | |
| KE7DJD | 2026-09-05 01:07:44 | 41.66314 | -115.03445 | 31° | 71km/h | 16471m | -5.0m/s | -55.0°C | 0% | 0hPa | 0V | 00:00:00 | 00:00:00 | 00:00:00 | |
| KE7DJD | 2026-09-05 01:07:24 | 41.66043 | -115.03770 | 31° | 73km/h | 16578m | -4.8m/s | -54.8°C | 0% | 0hPa | 0V | 00:00:00 | 00:00:00 | 00:00:00 | |
| KE7DJD | 2026-09-05 01:07:03 | 41.65806 | -115.04066 | 31° | 68km/h | 16681m | -5.3m/s | -53.9°C | 0% | 0hPa | 0V | 00:00:00 | 00:00:00 | 00:00:00 | |
| KE7DJD | 2026-09-05 01:06:43 | 41.65567 | -115.04315 | 24° | 62km/h | 16793m | -5.4m/s | -54.1°C | 0% | 0hPa | 0V | 00:00:00 | 00:00:00 | 00:00:00 | |
| KE7DJD | 2026-09-05 01:06:22 | 41.65329 | -115.04527 | 28° | 73km/h | 16899m | -5.3m/s | -54.2°C | 0% | 0hPa | 0V | 00:00:00 | 00:00:00 | 00:00:00 | |
| KE7DJD | 2026-09-05 01:05:41 | 41.64672 | -115.04812 | 21° | 78km/h | 17128m | -5.1m/s | -54.3°C | 0% | 0hPa | 0V | 00:00:00 | 00:00:00 | 00:00:00 | |
| KE7DJD | 2026-09-05 01:05:21 | 41.64312 | -115.04941 | 20° | 82km/h | 17239m | -5.2m/s | -55.0°C | 0% | 0hPa | 0V | 00:00:00 | 00:00:00 | 00:00:00 | |
| KE7DJD | 2026-09-05 01:05:00 | 41.63993 | -115.05098 | 31° | 82km/h | 17347m | -4.8m/s | -55.3°C | 0% | 0hPa | 0V | 00:00:00 | 00:00:00 | 00:00:00 | |
| KE7DJD | 2026-09-05 01:04:40 | 41.63640 | -115.05317 | 34° | 89km/h | 17457m | -5.3m/s | -54.9°C | 0% | 0hPa | 0V | 00:00:00 | 00:00:00 | 00:00:00 | |
| KE7DJD | 2026-09-05 01:04:19 | 41.63249 | -115.05604 | 33° | 93km/h | 17567m | -5.4m/s | -52.8°C | 0% | 0hPa | 0V | 00:00:00 | 00:00:00 | 00:00:00 | |
| KE7DJD | 2026-09-05 01:03:59 | 41.62936 | -115.05851 | 40° | 82km/h | 17675m | -5.2m/s | -51.6°C | 0% | 0hPa | 0V | 00:00:00 | 00:00:00 | 00:00:00 | |
| KE7DJD | 2026-09-05 01:03:37 | 41.62634 | -115.06116 | 27° | 75km/h | 17794m | -5.6m/s | -49.6°C | 0% | 0hPa | 0V | 00:00:00 | 00:00:00 | 00:00:00 | |
| KE7DJD | 2026-09-05 01:03:17 | 41.62372 | -115.06278 | 8° | 68km/h | 17910m | -6.0m/s | -47.7°C | 0% | 0hPa | 0V | 00:00:00 | 00:00:00 | 00:00:00 | |
| KE7DJD | 2026-09-05 01:02:56 | 41.62084 | -115.06329 | 345° | 57km/h | 18037m | -6.2m/s | -47.4°C | 0% | 0hPa | 0V | 00:00:00 | 00:00:00 | 00:00:00 | |
| KE7DJD | 2026-09-05 01:02:36 | 41.61839 | -115.06345 | 340° | 35km/h | 18172m | -6.6m/s | -48.2°C | 0% | 0hPa | 0V | 00:00:00 | 00:00:00 | 00:00:00 | |
| KE7DJD | 2026-09-05 01:02:16 | 41.61656 | -115.06353 | 16° | 16km/h | 18304m | -6.2m/s | -48.7°C | 0% | 0hPa | 0V | 00:00:00 | 00:00:00 | 00:00:00 | |
| KE7DJD | 2026-09-05 01:01:55 | 41.61491 | -115.06382 | 35° | 33km/h | 18433m | -6.4m/s | -49.8°C | 0% | 0hPa | 0V | 00:00:00 | 00:00:00 | 00:00:00 | |
| KE7DJD | 2026-09-05 01:01:35 | 41.61307 | -115.06419 | 30° | 46km/h | 18562m | -6.2m/s | -50.7°C | 0% | 0hPa | 0V | 00:00:00 | 00:00:00 | 00:00:00 | |
| KE7DJD | 2026-09-05 01:01:14 | 41.61130 | -115.06477 | 18° | 55km/h | 18683m | -5.8m/s | -51.2°C | 0% | 0hPa | 0V | 00:00:00 | 00:00:00 | 00:00:00 | |
| KE7DJD | 2026-09-05 01:00:33 | 41.60730 | -115.06591 | 27° | 38km/h | 18945m | -6.5m/s | -50.9°C | 0% | 0hPa | 0V | 00:00:00 | 00:00:00 | 00:00:00 | |
| KE7DJD | 2026-09-05 01:00:13 | 41.60656 | -115.06707 | 144° | 11km/h | 19077m | -5.1m/s | -49.8°C | 0% | 0hPa | 0V | 00:00:00 | 00:00:00 | 00:00:00 | |
| KE7DJD | 2026-09-05 00:59:30 | 41.60697 | -115.06590 | 227° | 5km/h | 19360m | -6.8m/s | -49.7°C | 0% | 0hPa | 0V | 00:00:00 | 00:00:00 | 00:00:00 | |
| KE7DJD | 2026-09-05 00:59:10 | 41.60709 | -115.06480 | 324° | 22km/h | 19510m | -7.4m/s | -50.7°C | 0% | 0hPa | 0V | 00:00:00 | 00:00:00 | 00:00:00 | |
| KE7DJD | 2026-09-05 00:58:49 | 41.60680 | -115.06419 | 302° | 22km/h | 19659m | -7.3m/s | -50.5°C | 0% | 0hPa | 0V | 00:00:00 | 00:00:00 | 00:00:00 | |
| KE7DJD | 2026-09-05 00:58:29 | 41.60632 | -115.06391 | 153° | 4km/h | 19807m | -7.3m/s | -49.2°C | 0% | 0hPa | 0V | 00:00:00 | 00:00:00 | 00:00:00 | |
| KE7DJD | 2026-09-05 00:58:08 | 41.60576 | -115.06482 | 103° | 13km/h | 19962m | -7.3m/s | -48.0°C | 0% | 0hPa | 0V | 00:00:00 | 00:00:00 | 00:00:00 | |
| KE7DJD | 2026-09-05 00:57:26 | 41.60410 | -115.06621 | 29° | 33km/h | 20277m | -7.0m/s | -49.9°C | 0% | 0hPa | 0V | 00:00:00 | 00:00:00 | 00:00:00 | |
| KE7DJD | 2026-09-05 00:57:06 | 41.60311 | -115.06627 | 24° | 35km/h | 20426m | -7.4m/s | -50.1°C | 0% | 0hPa | 0V | 00:00:00 | 00:00:00 | 00:00:00 | |
| KE7DJD | 2026-09-05 00:56:45 | 41.60202 | -115.06621 | 357° | 40km/h | 20578m | -7.7m/s | -49.8°C | 0% | 0hPa | 0V | 00:00:00 | 00:00:00 | 00:00:00 | |
| KE7DJD | 2026-09-05 00:56:25 | 41.60095 | -115.06591 | 303° | 33km/h | 20733m | -7.6m/s | -49.4°C | 0% | 0hPa | 0V | 00:00:00 | 00:00:00 | 00:00:00 | |
| KE7DJD | 2026-09-05 00:56:04 | 41.60040 | -115.06532 | 234° | 20km/h | 20887m | -8.2m/s | -48.7°C | 0% | 0hPa | 0V | 00:00:00 | 00:00:00 | 00:00:00 | |
| KE7DJD | 2026-09-05 00:55:44 | 41.59990 | -115.06461 | 102° | 7km/h | 21053m | -7.9m/s | -47.9°C | 0% | 0hPa | 0V | 00:00:00 | 00:00:00 | 00:00:00 | |
| KE7DJD | 2026-09-05 00:55:23 | 41.59970 | -115.06401 | 31° | 18km/h | 21212m | -8.4m/s | -48.8°C | 0% | 0hPa | 0V | 00:00:00 | 00:00:00 | 00:00:00 | |
| KE7DJD | 2026-09-05 00:55:03 | 41.59991 | -115.06358 | 292° | 18km/h | 21385m | -8.2m/s | -48.7°C | 0% | 0hPa | 0V | 00:00:00 | 00:00:00 | 00:00:00 | |
| KE7DJD | 2026-09-05 00:54:42 | 41.60062 | -115.06236 | 279° | 33km/h | 21562m | -8.8m/s | -48.5°C | 0% | 0hPa | 0V | 00:00:00 | 00:00:00 | 00:00:00 | |
| KE7DJD | 2026-09-05 00:54:22 | 41.60006 | -115.06102 | 301° | 40km/h | 21752m | -9.5m/s | -48.5°C | 0% | 0hPa | 0V | 00:00:00 | 00:00:00 | 00:00:00 | |
| KE7DJD | 2026-09-05 00:54:02 | 41.59995 | -115.06027 | 302° | 24km/h | 21937m | -9.0m/s | -47.6°C | 0% | 0hPa | 0V | 00:00:00 | 00:00:00 | 00:00:00 | |
| KE7DJD | 2026-09-05 00:53:41 | 41.60001 | -115.05910 | 312° | 24km/h | 22130m | -9.5m/s | -47.3°C | 0% | 0hPa | 0V | 00:00:00 | 00:00:00 | 00:00:00 | |
| KE7DJD | 2026-09-05 00:53:20 | 41.60074 | -115.05795 | 285° | 11km/h | 22318m | -8.9m/s | -46.7°C | 0% | 0hPa | 0V | 00:00:00 | 00:00:00 | 00:00:00 | |
| KE7DJD | 2026-09-05 00:53:00 | 41.60171 | -115.05705 | 164° | 15km/h | 22512m | -9.4m/s | -47.3°C | 0% | 0hPa | 0V | 00:00:00 | 00:00:00 | 00:00:00 | |
| KE7DJD | 2026-09-05 00:52:39 | 41.60262 | -115.05551 | 218° | 44km/h | 22704m | -11.1m/s | -47.9°C | 0% | 0hPa | 0V | 00:00:00 | 00:00:00 | 00:00:00 | |
| KE7DJD | 2026-09-05 00:52:19 | 41.60243 | -115.05348 | 357° | 18km/h | 22926m | -10.7m/s | -48.2°C | 0% | 0hPa | 0V | 00:00:00 | 00:00:00 | 00:00:00 | |
| KE7DJD | 2026-09-05 00:51:37 | 41.60162 | -115.04992 | 360° | 31km/h | 23362m | -11.3m/s | -47.6°C | 0% | 0hPa | 0V | 00:00:00 | 00:00:00 | 00:00:00 | |
| KE7DJD | 2026-09-05 00:51:17 | 41.60097 | -115.04869 | 280° | 51km/h | 23593m | -11.1m/s | -47.3°C | 0% | 0hPa | 0V | 00:00:00 | 00:00:00 | 00:00:00 | |
| KE7DJD | 2026-09-05 00:50:56 | 41.59978 | -115.04693 | 16° | 35km/h | 23819m | -11.2m/s | -47.2°C | 0% | 0hPa | 0V | 00:00:00 | 00:00:00 | 00:00:00 | |
| KE7DJD | 2026-09-05 00:50:35 | 41.59951 | -115.04590 | 262° | 53km/h | 24064m | -12.4m/s | -46.1°C | 0% | 0hPa | 0V | 00:00:00 | 00:00:00 | 00:00:00 | |
| KE7DJD | 2026-09-05 00:50:14 | 41.59840 | -115.04391 | 15° | 40km/h | 24313m | -11.4m/s | -45.6°C | 0% | 0hPa | 0V | 00:00:00 | 00:00:00 | 00:00:00 | |
| KE7DJD | 2026-09-05 00:49:53 | 41.59707 | -115.04315 | 295° | 44km/h | 24570m | -12.8m/s | -44.4°C | 0% | 0hPa | 0V | 00:00:00 | 00:00:00 | 00:00:00 | |
| KE7DJD | 2026-09-05 00:49:32 | 41.59595 | -115.04293 | 111° | 33km/h | 24833m | -12.9m/s | -43.7°C | 0% | 0hPa | 0V | 00:00:00 | 00:00:00 | 00:00:00 | |
| KE7DJD | 2026-09-05 00:49:12 | 41.59611 | -115.04229 | 332° | 42km/h | 25103m | -12.9m/s | -43.9°C | 0% | 0hPa | 0V | 00:00:00 | 00:00:00 | 00:00:00 | |
| KE7DJD | 2026-09-05 00:48:51 | 41.59591 | -115.04284 | 135° | 37km/h | 25358m | -12.8m/s | -43.9°C | 0% | 0hPa | 0V | 00:00:00 | 00:00:00 | 00:00:00 | |
| KE7DJD | 2026-09-05 00:48:31 | 41.59623 | -115.04304 | 356° | 27km/h | 25632m | -14.0m/s | -44.0°C | 0% | 0hPa | 0V | 00:00:00 | 00:00:00 | 00:00:00 | |
| KE7DJD | 2026-09-05 00:48:10 | 41.59624 | -115.04330 | 210° | 33km/h | 25915m | -14.3m/s | -43.8°C | 0% | 0hPa | 0V | 00:00:00 | 00:00:00 | 00:00:00 | |
| KE7DJD | 2026-09-05 00:47:50 | 41.59641 | -115.04314 | 131° | 29km/h | 26223m | -14.6m/s | -43.3°C | 0% | 0hPa | 0V | 00:00:00 | 00:00:00 | 00:00:00 | |
| KE7DJD | 2026-09-05 00:47:29 | 41.59663 | -115.04232 | 349° | 31km/h | 26524m | -15.0m/s | -41.8°C | 0% | 0hPa | 0V | 00:00:00 | 00:00:00 | 00:00:00 | |
| KE7DJD | 2026-09-05 00:47:08 | 41.59715 | -115.04180 | 263° | 47km/h | 26865m | -17.0m/s | -40.4°C | 0% | 0hPa | 0V | 00:00:00 | 00:00:00 | 00:00:00 | |
| KE7DJD | 2026-09-05 00:46:45 | 41.59769 | -115.04172 | 202° | 57km/h | 27216m | -16.0m/s | -41.3°C | 0% | 0hPa | 0V | 00:00:00 | 00:00:00 | 00:00:00 | |
| KE7DJD | 2026-09-05 00:46:22 | 41.59888 | -115.04095 | 186° | 62km/h | 27610m | -16.2m/s | -42.4°C | 0% | 0hPa | 0V | 00:00:00 | 00:00:00 | 00:00:00 | |
| KE7DJD | 2026-09-05 00:46:01 | 41.59941 | -115.03934 | 113° | 27km/h | 27960m | -16.8m/s | -41.9°C | 0% | 0hPa | 0V | 00:00:00 | 00:00:00 | 00:00:00 | |
| KE7DJD | 2026-09-05 00:45:40 | 41.59984 | -115.03807 | 325° | 42km/h | 28328m | -18.1m/s | -39.5°C | 0% | 0hPa | 0V | 00:00:00 | 00:00:00 | 00:00:00 | |
| KE7DJD | 2026-09-05 00:45:21 | 41.59962 | -115.03732 | 185° | 35km/h | 28664m | -18.2m/s | -38.5°C | 0% | 0hPa | 0V | 00:00:00 | 00:00:00 | 00:00:00 | |
| KE7DJD | 2026-09-05 00:45:00 | 41.59883 | -115.03585 | 36° | 62km/h | 29046m | -17.5m/s | -36.3°C | 0% | 0hPa | 0V | 00:00:00 | 00:00:00 | 00:00:00 | |
| KE7DJD | 2026-09-05 00:44:39 | 41.59856 | -115.03653 | 260° | 40km/h | 29415m | -21.0m/s | -35.6°C | 0% | 0hPa | 0V | 00:00:00 | 00:00:00 | 00:00:00 | |
| KE7DJD | 2026-09-05 00:44:18 | 41.59830 | -115.03634 | 164° | 51km/h | 29828m | -18.7m/s | -36.3°C | 0% | 0hPa | 0V | 00:00:00 | 00:00:00 | 00:00:00 | |
| KE7DJD | 2026-09-05 00:43:58 | 41.59853 | -115.03617 | 81° | 37km/h | 30238m | -22.9m/s | -36.9°C | 0% | 0hPa | 0V | 00:00:00 | 00:00:00 | 00:00:00 | |
| KE7DJD | 2026-09-05 00:43:38 | 41.59899 | -115.03477 | 330° | 60km/h | 30672m | -21.0m/s | -36.8°C | 0% | 0hPa | 0V | 00:00:00 | 00:00:00 | 00:00:00 | |
| KE7DJD | 2026-09-05 00:43:17 | 41.59855 | -115.03529 | 224° | 40km/h | 31084m | -21.0m/s | -36.9°C | 0% | 0hPa | 0V | 00:00:00 | 00:00:00 | 00:00:00 | |
| KE7DJD | 2026-09-05 00:42:55 | 41.59805 | -115.03537 | 223° | 49km/h | 31584m | -21.3m/s | -36.3°C | 0% | 0hPa | 0V | 00:00:00 | 00:00:00 | 00:00:00 | |
| KE7DJD | 2026-09-05 00:42:33 | 41.59769 | -115.03570 | 150° | 62km/h | 32052m | -24.0m/s | -36.4°C | 0% | 0hPa | 0V | 00:00:00 | 00:00:00 | 00:00:00 | |
| KE7DJD | 2026-09-05 00:42:07 | 41.59809 | -115.03620 | 288° | 38km/h | 32697m | -24.9m/s | -32.8°C | 0% | 0hPa | 0V | 00:00:00 | 00:00:00 | 00:00:00 | |
| KE7DJD | 2026-09-05 00:41:46 | 41.59813 | -115.03670 | 268° | 51km/h | 33245m | -26.4m/s | -29.7°C | 0% | 0hPa | 0V | 00:00:00 | 00:00:00 | 00:00:00 | |
| KE7DJD | 2026-09-05 00:41:25 | 41.59822 | -115.03679 | 193° | 69km/h | 33780m | -27.1m/s | -29.5°C | 0% | 0hPa | 0V | 00:00:00 | 00:00:00 | 00:00:00 | |
| KE7DJD | 2026-09-05 00:41:05 | 41.59889 | -115.03594 | 198° | 13km/h | 34330m | -35.8m/s | -28.0°C | 0% | 0hPa | 0V | 00:00:00 | 00:00:00 | 00:00:00 | |
| KE7DJD | 2026-09-05 00:40:44 | 41.59961 | -115.03524 | 291° | 33km/h | 34984m | -31.8m/s | -27.3°C | 0% | 0hPa | 0V | 00:00:00 | 00:00:00 | 00:00:00 | |
| KE7DJD | 2026-09-05 00:40:22 | 41.60011 | -115.03498 | 34° | 51km/h | 34997m | 3.8m/s | -28.0°C | 0% | 0hPa | 0V | 00:00:00 | 00:00:00 | 00:00:00 | |
| KE7DJD | 2026-09-05 00:39:58 | 41.59982 | -115.03418 | 184° | 55km/h | 34859m | 7.3m/s | -29.1°C | 0% | 0hPa | 0V | 00:00:00 | 00:00:00 | 00:00:00 | |
| KE7DJD | 2026-09-05 00:39:38 | 41.59997 | -115.03373 | 68° | 33km/h | 34739m | 5.9m/s | -28.2°C | 0% | 0hPa | 0V | 00:00:00 | 00:00:00 | 00:00:00 | |
| KE7DJD | 2026-09-05 00:39:11 | 41.60052 | -115.03233 | 45° | 24km/h | 34578m | 2.8m/s | -28.2°C | 0% | 0hPa | 0V | 00:00:00 | 00:00:00 | 00:00:00 | |
| KE7DJD | 2026-09-05 00:38:50 | 41.60119 | -115.03120 | 261° | 69km/h | 34453m | 8.9m/s | -28.5°C | 0% | 0hPa | 0V | 00:00:00 | 00:00:00 | 00:00:00 | |
| KE7DJD | 2026-09-05 00:38:30 | 41.60223 | -115.03018 | 219° | 57km/h | 34338m | 1.9m/s | -29.0°C | 0% | 0hPa | 0V | 00:00:00 | 00:00:00 | 00:00:00 | |
| KE7DJD | 2026-09-05 00:38:09 | 41.60300 | -115.02939 | 179° | 26km/h | 34222m | 7.3m/s | -29.1°C | 0% | 0hPa | 0V | 00:00:00 | 00:00:00 | 00:00:00 | |
| KE7DJD | 2026-09-05 00:37:47 | 41.60327 | -115.02913 | 284° | 40km/h | 34082m | 4.3m/s | -29.2°C | 0% | 0hPa | 0V | 00:00:00 | 00:00:00 | 00:00:00 | |
| KE7DJD | 2026-09-05 00:37:26 | 41.60412 | -115.02778 | 190° | 66km/h | 33947m | 5.2m/s | -29.3°C | 0% | 0hPa | 0V | 00:00:00 | 00:00:00 | 00:00:00 | |
| KE7DJD | 2026-09-05 00:37:04 | 41.60479 | -115.02657 | 4° | 16km/h | 33817m | 9.3m/s | -29.5°C | 0% | 0hPa | 0V | 00:00:00 | 00:00:00 | 00:00:00 | |
| KE7DJD | 2026-09-05 00:36:43 | 41.60515 | -115.02547 | 269° | 37km/h | 33681m | 1.5m/s | -29.9°C | 0% | 0hPa | 0V | 00:00:00 | 00:00:00 | 00:00:00 | |
| KE7DJD | 2026-09-05 00:36:01 | 41.60643 | -115.02532 | 62° | 38km/h | 33413m | 2.0m/s | -30.1°C | 0% | 0hPa | 0V | 00:00:00 | 00:00:00 | 00:00:00 | |
| KE7DJD | 2026-09-05 00:35:37 | 41.60585 | -115.02501 | 334° | 16km/h | 33261m | 4.6m/s | -30.2°C | 0% | 0hPa | 0V | 00:00:00 | 00:00:00 | 00:00:00 | |
| KE7DJD | 2026-09-05 00:35:17 | 41.60551 | -115.02500 | 103° | 5km/h | 33136m | 10.1m/s | -31.3°C | 0% | 0hPa | 0V | 00:00:00 | 00:00:00 | 00:00:00 | |
| KE7DJD | 2026-09-05 00:34:57 | 41.60595 | -115.02524 | 85° | 27km/h | 33006m | 4.3m/s | -32.3°C | 0% | 0hPa | 0V | 00:00:00 | 00:00:00 | 00:00:00 | |
| KE7DJD | 2026-09-05 00:34:36 | 41.60635 | -115.02538 | 273° | 13km/h | 32889m | 9.9m/s | -33.0°C | 0% | 0hPa | 0V | 00:00:00 | 00:00:00 | 00:00:00 | |
| KE7DJD | 2026-09-05 00:34:15 | 41.60707 | -115.02563 | 163° | 7km/h | 32767m | 2.6m/s | -34.6°C | 0% | 0hPa | 0V | 00:00:00 | 00:00:00 | 00:00:00 | |
| KE7DJD | 2026-09-05 00:33:55 | 41.60758 | -115.02627 | 101° | 38km/h | 32645m | 8.9m/s | -35.2°C | 0% | 0hPa | 0V | 00:00:00 | 00:00:00 | 00:00:00 | |
| KE7DJD | 2026-09-05 00:33:35 | 41.60805 | -115.02735 | 115° | 13km/h | 32520m | 8.4m/s | -35.6°C | 0% | 0hPa | 0V | 00:00:00 | 00:00:00 | 00:00:00 | |
| KE7DJD | 2026-09-05 00:33:14 | 41.60814 | -115.02799 | 309° | 22km/h | 32396m | 1.4m/s | -35.5°C | 0% | 0hPa | 0V | 00:00:00 | 00:00:00 | 00:00:00 | |
| KE7DJD | 2026-09-05 00:32:54 | 41.60789 | -115.02842 | 87° | 33km/h | 32269m | 9.6m/s | -35.8°C | 0% | 0hPa | 0V | 00:00:00 | 00:00:00 | 00:00:00 | |
| KE7DJD | 2026-09-05 00:32:33 | 41.60794 | -115.02956 | 71° | 35km/h | 32149m | 3.9m/s | -36.5°C | 0% | 0hPa | 0V | 00:00:00 | 00:00:00 | 00:00:00 | |
| KE7DJD | 2026-09-05 00:32:13 | 41.60805 | -115.03086 | 181° | 13km/h | 32018m | 4.3m/s | -36.7°C | 0% | 0hPa | 0V | 00:00:00 | 00:00:00 | 00:00:00 | |
| KE7DJD | 2026-09-05 00:31:52 | 41.60812 | -115.03219 | 92° | 24km/h | 31893m | 9.4m/s | -36.6°C | 0% | 0hPa | 0V | 00:00:00 | 00:00:00 | 00:00:00 | |
| KE7DJD | 2026-09-05 00:31:32 | 41.60807 | -115.03319 | 165° | 11km/h | 31763m | 4.9m/s | -36.2°C | 0% | 0hPa | 0V | 00:00:00 | 00:00:00 | 00:00:00 | |
| KE7DJD | 2026-09-05 00:31:10 | 41.60758 | -115.03269 | 301° | 51km/h | 31632m | 2.2m/s | -36.1°C | 0% | 0hPa | 0V | 00:00:00 | 00:00:00 | 00:00:00 | |
| KE7DJD | 2026-09-05 00:30:50 | 41.60710 | -115.03230 | 77° | 31km/h | 31506m | 7.5m/s | -36.9°C | 0% | 0hPa | 0V | 00:00:00 | 00:00:00 | 00:00:00 | |
| KE7DJD | 2026-09-05 00:30:30 | 41.60707 | -115.03298 | 79° | 18km/h | 31391m | 7.0m/s | -37.5°C | 0% | 0hPa | 0V | 00:00:00 | 00:00:00 | 00:00:00 | |
| KE7DJD | 2026-09-05 00:30:09 | 41.60685 | -115.03358 | 73° | 15km/h | 31265m | 9.0m/s | -37.2°C | 0% | 0hPa | 0V | 00:00:00 | 00:00:00 | 00:00:00 | |
| KE7DJD | 2026-09-05 00:29:49 | 41.60639 | -115.03413 | 319° | 7km/h | 31137m | 7.7m/s | -37.8°C | 0% | 0hPa | 0V | 00:00:00 | 00:00:00 | 00:00:00 | |
| KE7DJD | 2026-09-05 00:29:27 | 41.60592 | -115.03432 | 93° | 26km/h | 31000m | 9.2m/s | -38.6°C | 0% | 0hPa | 0V | 00:00:00 | 00:00:00 | 00:00:00 | |
| KE7DJD | 2026-09-05 00:29:06 | 41.60529 | -115.03449 | 299° | 26km/h | 30866m | 8.0m/s | -37.8°C | 0% | 0hPa | 0V | 00:00:00 | 00:00:00 | 00:00:00 | |
| KE7DJD | 2026-09-05 00:28:45 | 41.60488 | -115.03390 | 130° | 11km/h | 30742m | 7.2m/s | -37.1°C | 0% | 0hPa | 0V | 00:00:00 | 00:00:00 | 00:00:00 | |
| KE7DJD | 2026-09-05 00:28:25 | 41.60451 | -115.03264 | 296° | 64km/h | 30599m | 5.0m/s | -37.7°C | 0% | 0hPa | 0V | 00:00:00 | 00:00:00 | 00:00:00 | |
| KE7DJD | 2026-09-05 00:28:04 | 41.60468 | -115.03152 | 260° | 24km/h | 30482m | 6.8m/s | -37.7°C | 0% | 0hPa | 0V | 00:00:00 | 00:00:00 | 00:00:00 | |
| KE7DJD | 2026-09-05 00:27:44 | 41.60508 | -115.03099 | 300° | 15km/h | 30348m | 7.0m/s | -37.7°C | 0% | 0hPa | 0V | 00:00:00 | 00:00:00 | 00:00:00 | |
| KE7DJD | 2026-09-05 00:27:23 | 41.60505 | -115.03108 | 96° | 27km/h | 30220m | 9.0m/s | -38.0°C | 0% | 0hPa | 0V | 00:00:00 | 00:00:00 | 00:00:00 | |
| KE7DJD | 2026-09-05 00:27:03 | 41.60484 | -115.03173 | 53° | 18km/h | 30088m | 3.8m/s | -37.0°C | 0% | 0hPa | 0V | 00:00:00 | 00:00:00 | 00:00:00 | |
| KE7DJD | 2026-09-05 00:26:42 | 41.60484 | -115.03218 | 107° | 31km/h | 29964m | 3.7m/s | -36.7°C | 0% | 0hPa | 0V | 00:00:00 | 00:00:00 | 00:00:00 | |
| KE7DJD | 2026-09-05 00:26:22 | 41.60448 | -115.03218 | 328° | 40km/h | 29836m | 2.6m/s | -36.2°C | 0% | 0hPa | 0V | 00:00:00 | 00:00:00 | 00:00:00 | |
| KE7DJD | 2026-09-05 00:26:00 | 41.60405 | -115.03169 | 235° | 13km/h | 29714m | 4.4m/s | -35.5°C | 0% | 0hPa | 0V | 00:00:00 | 00:00:00 | 00:00:00 | |
| KE7DJD | 2026-09-05 00:25:38 | 41.60353 | -115.03058 | 266° | 11km/h | 29589m | 9.0m/s | -35.7°C | 0% | 0hPa | 0V | 00:00:00 | 00:00:00 | 00:00:00 | |
| KE7DJD | 2026-09-05 00:25:18 | 41.60312 | -115.03037 | 353° | 35km/h | 29467m | 6.1m/s | -36.5°C | 0% | 0hPa | 0V | 00:00:00 | 00:00:00 | 00:00:00 | |
| KE7DJD | 2026-09-05 00:24:58 | 41.60255 | -115.03049 | 353° | 2km/h | 29343m | 4.0m/s | -36.9°C | 0% | 0hPa | 0V | 00:00:00 | 00:00:00 | 00:00:00 | |
| KE7DJD | 2026-09-05 00:24:37 | 41.60171 | -115.03067 | 5° | 22km/h | 29221m | 7.4m/s | -36.6°C | 0% | 0hPa | 0V | 00:00:00 | 00:00:00 | 00:00:00 | |
| KE7DJD | 2026-09-05 00:24:17 | 41.60064 | -115.03092 | 334° | 22km/h | 29093m | 5.9m/s | -37.4°C | 0% | 0hPa | 0V | 00:00:00 | 00:00:00 | 00:00:00 | |
| KE7DJD | 2026-09-05 00:23:56 | 41.59978 | -115.03023 | 295° | 5km/h | 28982m | 2.2m/s | -37.8°C | 0% | 0hPa | 0V | 00:00:00 | 00:00:00 | 00:00:00 | |
| KE7DJD | 2026-09-05 00:23:36 | 41.59905 | -115.02866 | 281° | 20km/h | 28852m | 7.6m/s | -38.0°C | 0% | 0hPa | 0V | 00:00:00 | 00:00:00 | 00:00:00 | |
| KE7DJD | 2026-09-05 00:23:15 | 41.59841 | -115.02731 | 322° | 18km/h | 28734m | 6.8m/s | -38.5°C | 0% | 0hPa | 0V | 00:00:00 | 00:00:00 | 00:00:00 | |
| KE7DJD | 2026-09-05 00:22:55 | 41.59823 | -115.02586 | 262° | 22km/h | 28606m | 4.4m/s | -38.9°C | 0% | 0hPa | 0V | 00:00:00 | 00:00:00 | 00:00:00 | |
| KE7DJD | 2026-09-05 00:22:33 | 41.59799 | -115.02425 | 234° | 40km/h | 28472m | 2.4m/s | -38.8°C | 0% | 0hPa | 0V | 00:00:00 | 00:00:00 | 00:00:00 | |
| KE7DJD | 2026-09-05 00:22:12 | 41.59839 | -115.02230 | 208° | 27km/h | 28331m | 6.6m/s | -38.9°C | 0% | 0hPa | 0V | 00:00:00 | 00:00:00 | 00:00:00 | |
| KE7DJD | 2026-09-05 00:21:51 | 41.59898 | -115.02115 | 190° | 27km/h | 28203m | 6.2m/s | -40.0°C | 0% | 0hPa | 0V | 00:00:00 | 00:00:00 | 00:00:00 | |
| KE7DJD | 2026-09-05 00:21:31 | 41.59918 | -115.01999 | 238° | 9km/h | 28075m | 6.3m/s | -40.5°C | 0% | 0hPa | 0V | 00:00:00 | 00:00:00 | 00:00:00 | |
| KE7DJD | 2026-09-05 00:21:09 | 41.59942 | -115.01881 | 306° | 24km/h | 27947m | 6.1m/s | -41.2°C | 0% | 0hPa | 0V | 00:00:00 | 00:00:00 | 00:00:00 | |
| KE7DJD | 2026-09-05 00:20:49 | 41.60000 | -115.01777 | 232° | 11km/h | 27829m | 6.4m/s | -41.5°C | 0% | 0hPa | 0V | 00:00:00 | 00:00:00 | 00:00:00 | |
| KE7DJD | 2026-09-05 00:20:28 | 41.60047 | -115.01645 | 209° | 37km/h | 27704m | 3.4m/s | -41.6°C | 0% | 0hPa | 0V | 00:00:00 | 00:00:00 | 00:00:00 | |
| KE7DJD | 2026-09-05 00:20:08 | 41.60129 | -115.01521 | 207° | 38km/h | 27583m | 7.8m/s | -41.8°C | 0% | 0hPa | 0V | 00:00:00 | 00:00:00 | 00:00:00 | |
| KE7DJD | 2026-09-05 00:19:47 | 41.60264 | -115.01422 | 193° | 27km/h | 27461m | 7.1m/s | -41.2°C | 0% | 0hPa | 0V | 00:00:00 | 00:00:00 | 00:00:00 | |
| KE7DJD | 2026-09-05 00:19:27 | 41.60397 | -115.01373 | 254° | 22km/h | 27336m | 4.2m/s | -41.1°C | 0% | 0hPa | 0V | 00:00:00 | 00:00:00 | 00:00:00 | |
| KE7DJD | 2026-09-05 00:19:07 | 41.60530 | -115.01366 | 186° | 24km/h | 27208m | 6.8m/s | -40.5°C | 0% | 0hPa | 0V | 00:00:00 | 00:00:00 | 00:00:00 | |
| KE7DJD | 2026-09-05 00:18:46 | 41.60590 | -115.01377 | 176° | 33km/h | 27088m | 7.0m/s | -40.6°C | 0% | 0hPa | 0V | 00:00:00 | 00:00:00 | 00:00:00 | |
| KE7DJD | 2026-09-05 00:18:26 | 41.60637 | -115.01379 | 134° | 4km/h | 26962m | 5.2m/s | -40.2°C | 0% | 0hPa | 0V | 00:00:00 | 00:00:00 | 00:00:00 | |
| KE7DJD | 2026-09-05 00:18:05 | 41.60725 | -115.01322 | 223° | 18km/h | 26841m | 6.3m/s | -40.4°C | 0% | 0hPa | 0V | 00:00:00 | 00:00:00 | 00:00:00 | |
| KE7DJD | 2026-09-05 00:17:45 | 41.60808 | -115.01290 | 51° | 9km/h | 26720m | 7.3m/s | -41.3°C | 0% | 0hPa | 0V | 00:00:00 | 00:00:00 | 00:00:00 | |
| KE7DJD | 2026-09-05 00:17:24 | 41.60798 | -115.01275 | 0° | 0km/h | 26604m | 6.5m/s | -42.4°C | 0% | 0hPa | 0V | 00:00:00 | 00:00:00 | 00:00:00 | |
| KE7DJD | 2026-09-05 00:17:04 | 41.60821 | -115.01239 | 234° | 11km/h | 26481m | 6.4m/s | -42.7°C | 0% | 0hPa | 0V | 00:00:00 | 00:00:00 | 00:00:00 | |
| KE7DJD | 2026-09-05 00:16:43 | 41.60798 | -115.01198 | 237° | 7km/h | 26370m | 6.1m/s | -43.3°C | 0% | 0hPa | 0V | 00:00:00 | 00:00:00 | 00:00:00 | |
| KE7DJD | 2026-09-05 00:16:23 | 41.60773 | -115.01153 | 201° | 16km/h | 26251m | 6.0m/s | -43.5°C | 0% | 0hPa | 0V | 00:00:00 | 00:00:00 | 00:00:00 | |
| KE7DJD | 2026-09-05 00:16:02 | 41.60806 | -115.01118 | 175° | 26km/h | 26133m | 6.4m/s | -43.9°C | 0% | 0hPa | 0V | 00:00:00 | 00:00:00 | 00:00:00 | |
| KE7DJD | 2026-09-05 00:15:40 | 41.60857 | -115.01160 | 188° | 27km/h | 26017m | 1.9m/s | -43.8°C | 0% | 0hPa | 0V | 00:00:00 | 00:00:00 | 00:00:00 | |
| KE7DJD | 2026-09-05 00:15:18 | 41.60861 | -115.01135 | 19° | 7km/h | 25891m | 7.0m/s | -44.0°C | 0% | 0hPa | 0V | 00:00:00 | 00:00:00 | 00:00:00 | |
| KE7DJD | 2026-09-05 00:14:57 | 41.60850 | -115.01139 | 207° | 15km/h | 25773m | 5.0m/s | -44.0°C | 0% | 0hPa | 0V | 00:00:00 | 00:00:00 | 00:00:00 | |
| KE7DJD | 2026-09-05 00:14:37 | 41.60855 | -115.01148 | 298° | 18km/h | 25653m | 5.2m/s | -44.0°C | 0% | 0hPa | 0V | 00:00:00 | 00:00:00 | 00:00:00 | |
| KE7DJD | 2026-09-05 00:14:16 | 41.60851 | -115.01234 | 6° | 15km/h | 25534m | 3.4m/s | -44.5°C | 0% | 0hPa | 0V | 00:00:00 | 00:00:00 | 00:00:00 | |
| KE7DJD | 2026-09-05 00:13:55 | 41.60837 | -115.01292 | 75° | 20km/h | 25424m | 4.8m/s | -44.1°C | 0% | 0hPa | 0V | 00:00:00 | 00:00:00 | 00:00:00 | |
| KE7DJD | 2026-09-05 00:13:14 | 41.60864 | -115.01311 | 312° | 11km/h | 25187m | 5.3m/s | -43.5°C | 0% | 0hPa | 0V | 00:00:00 | 00:00:00 | 00:00:00 | |
| KE7DJD | 2026-09-05 00:12:53 | 41.60802 | -115.01339 | 29° | 24km/h | 25067m | 6.6m/s | -43.7°C | 0% | 0hPa | 0V | 00:00:00 | 00:00:00 | 00:00:00 | |
| KE7DJD | 2026-09-05 00:12:32 | 41.60762 | -115.01305 | 358° | 13km/h | 24954m | 6.5m/s | -43.5°C | 0% | 0hPa | 0V | 00:00:00 | 00:00:00 | 00:00:00 | |
| KE7DJD | 2026-09-05 00:12:12 | 41.60748 | -115.01230 | 281° | 4km/h | 24842m | 4.0m/s | -43.1°C | 0% | 0hPa | 0V | 00:00:00 | 00:00:00 | 00:00:00 | |
| KE7DJD | 2026-09-05 00:11:51 | 41.60713 | -115.01201 | 358° | 26km/h | 24723m | 6.1m/s | -43.3°C | 0% | 0hPa | 0V | 00:00:00 | 00:00:00 | 00:00:00 | |
| KE7DJD | 2026-09-05 00:11:31 | 41.60627 | -115.01162 | 335° | 31km/h | 24609m | 5.4m/s | -44.0°C | 0% | 0hPa | 0V | 00:00:00 | 00:00:00 | 00:00:00 | |
| KE7DJD | 2026-09-05 00:10:50 | 41.60338 | -115.00956 | 328° | 42km/h | 24380m | 4.7m/s | -44.6°C | 0% | 0hPa | 0V | 00:00:00 | 00:00:00 | 00:00:00 | |
| KE7DJD | 2026-09-05 00:10:29 | 41.60173 | -115.00780 | 312° | 37km/h | 24266m | 6.4m/s | -45.1°C | 0% | 0hPa | 0V | 00:00:00 | 00:00:00 | 00:00:00 | |
| KE7DJD | 2026-09-05 00:10:09 | 41.60084 | -115.00585 | 310° | 35km/h | 24157m | 5.6m/s | -45.5°C | 0% | 0hPa | 0V | 00:00:00 | 00:00:00 | 00:00:00 | |
| KE7DJD | 2026-09-05 00:09:49 | 41.60022 | -115.00426 | 274° | 20km/h | 24044m | 6.2m/s | -46.5°C | 0% | 0hPa | 0V | 00:00:00 | 00:00:00 | 00:00:00 | |
| KE7DJD | 2026-09-05 00:09:28 | 41.59955 | -115.00296 | 312° | 27km/h | 23937m | 6.1m/s | -47.2°C | 0% | 0hPa | 0V | 00:00:00 | 00:00:00 | 00:00:00 | |
| KE7DJD | 2026-09-05 00:09:08 | 41.59877 | -115.00146 | 263° | 29km/h | 23824m | 5.5m/s | -47.2°C | 0% | 0hPa | 0V | 00:00:00 | 00:00:00 | 00:00:00 | |
| KE7DJD | 2026-09-05 00:08:47 | 41.59810 | -114.99969 | 276° | 33km/h | 23715m | 4.1m/s | -47.4°C | 0% | 0hPa | 0V | 00:00:00 | 00:00:00 | 00:00:00 | |
| KE7DJD | 2026-09-05 00:08:27 | 41.59711 | -114.99760 | 316° | 40km/h | 23601m | 5.9m/s | -47.2°C | 0% | 0hPa | 0V | 00:00:00 | 00:00:00 | 00:00:00 | |
| KE7DJD | 2026-09-05 00:08:16 | 41.59630 | -114.99602 | 323° | 26km/h | 23493m | 7.0m/s | -47.6°C | 0% | 0hPa | 0V | 00:00:00 | 00:00:00 | 00:00:00 | |
| KE7DJD | 2026-09-05 00:07:46 | 41.59565 | -114.99435 | 300° | 24km/h | 23376m | 5.3m/s | -48.0°C | 0% | 0hPa | 0V | 00:00:00 | 00:00:00 | 00:00:00 | |
| KE7DJD | 2026-09-05 00:07:25 | 41.59549 | -114.99235 | 253° | 22km/h | 23259m | 7.2m/s | -48.3°C | 0% | 0hPa | 0V | 00:00:00 | 00:00:00 | 00:00:00 | |
| KE7DJD | 2026-09-05 00:07:05 | 41.59572 | -114.99068 | 250° | 27km/h | 23149m | 6.7m/s | -48.3°C | 0% | 0hPa | 0V | 00:00:00 | 00:00:00 | 00:00:00 | |
| KE7DJD | 2026-09-05 00:06:44 | 41.59565 | -114.98889 | 264° | 18km/h | 23034m | 4.5m/s | -48.9°C | 0% | 0hPa | 0V | 00:00:00 | 00:00:00 | 00:00:00 | |
| KE7DJD | 2026-09-05 00:06:23 | 41.59541 | -114.98716 | 264° | 37km/h | 22922m | 4.6m/s | -49.2°C | 0% | 0hPa | 0V | 00:00:00 | 00:00:00 | 00:00:00 | |
| KE7DJD | 2026-09-05 00:06:03 | 41.59562 | -114.98538 | 251° | 27km/h | 22810m | 6.9m/s | -48.8°C | 0% | 0hPa | 0V | 00:00:00 | 00:00:00 | 00:00:00 | |
| KE7DJD | 2026-09-05 00:05:42 | 41.59621 | -114.98363 | 263° | 15km/h | 22697m | 2.9m/s | -48.3°C | 0% | 0hPa | 0V | 00:00:00 | 00:00:00 | 00:00:00 | |
| KE7DJD | 2026-09-05 00:05:22 | 41.59682 | -114.98231 | 199° | 5km/h | 22590m | 5.4m/s | -48.1°C | 0% | 0hPa | 0V | 00:00:00 | 00:00:00 | 00:00:00 | |
| KE7DJD | 2026-09-05 00:05:01 | 41.59754 | -114.98172 | 188° | 18km/h | 22479m | 4.9m/s | -48.2°C | 0% | 0hPa | 0V | 00:00:00 | 00:00:00 | 00:00:00 | |
| KE7DJD | 2026-09-05 00:04:41 | 41.59807 | -114.98089 | 209° | 20km/h | 22367m | 6.2m/s | -48.3°C | 0% | 0hPa | 0V | 00:00:00 | 00:00:00 | 00:00:00 | |
| KE7DJD | 2026-09-05 00:04:20 | 41.59855 | -114.98025 | 228° | 16km/h | 22258m | 4.8m/s | -48.2°C | 0% | 0hPa | 0V | 00:00:00 | 00:00:00 | 00:00:00 | |
| KE7DJD | 2026-09-05 00:04:00 | 41.59872 | -114.97926 | 264° | 9km/h | 22149m | 4.9m/s | -47.8°C | 0% | 0hPa | 0V | 00:00:00 | 00:00:00 | 00:00:00 | |
| KE7DJD | 2026-09-05 00:03:39 | 41.59864 | -114.97806 | 243° | 15km/h | 22048m | 5.5m/s | -47.6°C | 0% | 0hPa | 0V | 00:00:00 | 00:00:00 | 00:00:00 | |
| KE7DJD | 2026-09-05 00:03:19 | 41.59875 | -114.97707 | 304° | 11km/h | 21941m | 5.8m/s | -47.8°C | 0% | 0hPa | 0V | 00:00:00 | 00:00:00 | 00:00:00 | |
| KE7DJD | 2026-09-05 00:02:41 | 41.59812 | -114.97575 | 296° | 26km/h | 21738m | 6.0m/s | -48.5°C | 0% | 0hPa | 0V | 00:00:00 | 00:00:00 | 00:00:00 | |
| KE7DJD | 2026-09-05 00:02:20 | 41.59757 | -114.97446 | 258° | 27km/h | 21637m | 5.9m/s | -48.1°C | 0% | 0hPa | 0V | 00:00:00 | 00:00:00 | 00:00:00 | |
| KE7DJD | 2026-09-05 00:01:39 | 41.59786 | -114.97284 | 205° | 5km/h | 21417m | 5.9m/s | -49.1°C | 0% | 0hPa | 0V | 00:00:00 | 00:00:00 | 00:00:00 | |
| KE7DJD | 2026-09-05 00:01:17 | 41.59791 | -114.97316 | 80° | 5km/h | 21308m | 6.6m/s | -49.2°C | 0% | 0hPa | 0V | 00:00:00 | 00:00:00 | 00:00:00 | |
| KE7DJD | 2026-09-05 00:00:55 | 41.59763 | -114.97330 | 302° | 5km/h | 21191m | 6.2m/s | -48.5°C | 0% | 0hPa | 0V | 00:00:00 | 00:00:00 | 00:00:00 | |
| KE7DJD | 2026-09-05 00:00:38 | 41.59711 | -114.97310 | 314° | 9km/h | 21084m | 4.6m/s | -49.0°C | 0% | 0hPa | 0V | 00:00:00 | 00:00:00 | 00:00:00 | |
| KE7DJD | 2026-09-05 00:00:14 | 41.59622 | -114.97267 | 352° | 13km/h | 20968m | 4.9m/s | -48.9°C | 0% | 0hPa | 0V | 00:00:00 | 00:00:00 | 00:00:00 | |
| KE7DJD | 2026-09-04 23:59:53 | 41.59583 | -114.97272 | 44° | 11km/h | 20858m | 4.7m/s | -49.6°C | 0% | 0hPa | 0V | 00:00:00 | 00:00:00 | 00:00:00 | |
| KE7DJD | 2026-09-04 23:59:33 | 41.59510 | -114.97262 | 348° | 31km/h | 20749m | 5.4m/s | -49.2°C | 0% | 0hPa | 0V | 00:00:00 | 00:00:00 | 00:00:00 | |
| KE7DJD | 2026-09-04 23:59:12 | 41.59410 | -114.97243 | 360° | 24km/h | 20649m | 5.9m/s | -49.5°C | 0% | 0hPa | 0V | 00:00:00 | 00:00:00 | 00:00:00 | |
| KE7DJD | 2026-09-04 23:58:52 | 41.59300 | -114.97226 | 357° | 16km/h | 20547m | 5.2m/s | -49.3°C | 0% | 0hPa | 0V | 00:00:00 | 00:00:00 | 00:00:00 | |
| KE7DJD | 2026-09-04 23:58:31 | 41.59170 | -114.97210 | 324° | 35km/h | 20445m | 3.4m/s | -49.8°C | 0% | 0hPa | 0V | 00:00:00 | 00:00:00 | 00:00:00 | |
| KE7DJD | 2026-09-04 23:58:11 | 41.59071 | -114.97146 | 309° | 29km/h | 20350m | 4.7m/s | -49.4°C | 0% | 0hPa | 0V | 00:00:00 | 00:00:00 | 00:00:00 | |
| KE7DJD | 2026-09-04 23:57:50 | 41.58958 | -114.97059 | 329° | 26km/h | 20255m | 5.3m/s | -48.7°C | 0% | 0hPa | 0V | 00:00:00 | 00:00:00 | 00:00:00 | |
| KE7DJD | 2026-09-04 23:57:30 | 41.58849 | -114.96999 | 332° | 22km/h | 20149m | 6.0m/s | -48.1°C | 0% | 0hPa | 0V | 00:00:00 | 00:00:00 | 00:00:00 | |
| KE7DJD | 2026-09-04 23:57:08 | 41.58768 | -114.96918 | 284° | 22km/h | 20047m | 3.5m/s | -47.9°C | 0% | 0hPa | 0V | 00:00:00 | 00:00:00 | 00:00:00 | |
| KE7DJD | 2026-09-04 23:56:48 | 41.58710 | -114.96895 | 25° | 15km/h | 19939m | 4.6m/s | -47.2°C | 0% | 0hPa | 0V | 00:00:00 | 00:00:00 | 00:00:00 | |
| KE7DJD | 2026-09-04 23:56:27 | 41.58646 | -114.96936 | 40° | 26km/h | 19838m | 6.6m/s | -47.4°C | 0% | 0hPa | 0V | 00:00:00 | 00:00:00 | 00:00:00 | |
| KE7DJD | 2026-09-04 23:56:07 | 41.58580 | -114.96999 | 343° | 29km/h | 19737m | 6.1m/s | -48.6°C | 0% | 0hPa | 0V | 00:00:00 | 00:00:00 | 00:00:00 | |
| KE7DJD | 2026-09-04 23:55:46 | 41.58506 | -114.96967 | 361° | 16km/h | 19636m | 5.3m/s | -50.2°C | 0% | 0hPa | 0V | 00:00:00 | 00:00:00 | 00:00:00 | |
| KE7DJD | 2026-09-04 23:55:26 | 41.58441 | -114.96946 | 315° | 15km/h | 19541m | 4.8m/s | -50.4°C | 0% | 0hPa | 0V | 00:00:00 | 00:00:00 | 00:00:00 | |
| KE7DJD | 2026-09-04 23:55:06 | 41.58409 | -114.96892 | 255° | 16km/h | 19439m | 4.6m/s | -49.9°C | 0% | 0hPa | 0V | 00:00:00 | 00:00:00 | 00:00:00 | |
| KE7DJD | 2026-09-04 23:54:46 | 41.58398 | -114.96841 | 52° | 7km/h | 19342m | 5.2m/s | -49.4°C | 0% | 0hPa | 0V | 00:00:00 | 00:00:00 | 00:00:00 | |
| KE7DJD | 2026-09-04 23:54:25 | 41.58402 | -114.96825 | 286° | 15km/h | 19241m | 5.7m/s | -48.7°C | 0% | 0hPa | 0V | 00:00:00 | 00:00:00 | 00:00:00 | |
| KE7DJD | 2026-09-04 23:54:04 | 41.58365 | -114.96867 | 74° | 13km/h | 19146m | 6.0m/s | -49.5°C | 0% | 0hPa | 0V | 00:00:00 | 00:00:00 | 00:00:00 | |
| KE7DJD | 2026-09-04 23:53:44 | 41.58279 | -114.97006 | 43° | 35km/h | 19052m | 5.0m/s | -51.6°C | 0% | 0hPa | 0V | 00:00:00 | 00:00:00 | 00:00:00 | |
| KE7DJD | 2026-09-04 23:53:03 | 41.58045 | -114.97202 | 30° | 35km/h | 18863m | 5.0m/s | -50.9°C | 0% | 0hPa | 0V | 00:00:00 | 00:00:00 | 00:00:00 | |
| KE7DJD | 2026-09-04 23:52:42 | 41.57874 | -114.97266 | 12° | 40km/h | 18771m | 5.3m/s | -51.3°C | 0% | 0hPa | 0V | 00:00:00 | 00:00:00 | 00:00:00 | |
| KE7DJD | 2026-09-04 23:52:22 | 41.57653 | -114.97285 | 7° | 49km/h | 18675m | 3.4m/s | -51.4°C | 0% | 0hPa | 0V | 00:00:00 | 00:00:00 | 00:00:00 | |
| KE7DJD | 2026-09-04 23:52:01 | 41.57438 | -114.97260 | 338° | 44km/h | 18580m | 4.2m/s | -50.8°C | 0% | 0hPa | 0V | 00:00:00 | 00:00:00 | 00:00:00 | |
| KE7DJD | 2026-09-04 23:51:41 | 41.57228 | -114.97190 | 354° | 42km/h | 18482m | 6.1m/s | -50.8°C | 0% | 0hPa | 0V | 00:00:00 | 00:00:00 | 00:00:00 | |
| KE7DJD | 2026-09-04 23:51:20 | 41.57040 | -114.97103 | 350° | 33km/h | 18379m | 4.4m/s | -50.0°C | 0% | 0hPa | 0V | 00:00:00 | 00:00:00 | 00:00:00 | |
| KE7DJD | 2026-09-04 23:50:59 | 41.56893 | -114.97042 | 343° | 24km/h | 18279m | 5.7m/s | -49.8°C | 0% | 0hPa | 0V | 00:00:00 | 00:00:00 | 00:00:00 | |
| KE7DJD | 2026-09-04 23:50:39 | 41.56746 | -114.97001 | 295° | 20km/h | 18173m | 5.9m/s | -49.2°C | 0% | 0hPa | 0V | 00:00:00 | 00:00:00 | 00:00:00 | |
| KE7DJD | 2026-09-04 23:50:18 | 41.56631 | -114.96983 | 8° | 26km/h | 18053m | 5.4m/s | -51.5°C | 0% | 0hPa | 0V | 00:00:00 | 00:00:00 | 00:00:00 | |
| KE7DJD | 2026-09-04 23:49:58 | 41.56478 | -114.97182 | 30° | 55km/h | 17919m | 6.7m/s | -51.6°C | 0% | 0hPa | 0V | 00:00:00 | 00:00:00 | 00:00:00 | |
| KE7DJD | 2026-09-04 23:49:37 | 41.56230 | -114.97467 | 36° | 69km/h | 17779m | 6.2m/s | -54.3°C | 0% | 0hPa | 0V | 00:00:00 | 00:00:00 | 00:00:00 | |
| KE7DJD | 2026-09-04 23:49:17 | 41.55879 | -114.97801 | 36° | 88km/h | 17649m | 6.5m/s | -54.3°C | 0% | 0hPa | 0V | 00:00:00 | 00:00:00 | 00:00:00 | |
| KE7DJD | 2026-09-04 23:48:56 | 41.55515 | -114.98154 | 39° | 88km/h | 17523m | 5.3m/s | -54.3°C | 0% | 0hPa | 0V | 00:00:00 | 00:00:00 | 00:00:00 | |
| KE7DJD | 2026-09-04 23:48:36 | 41.55128 | -114.98518 | 38° | 86km/h | 17405m | 6.5m/s | -54.0°C | 0% | 0hPa | 0V | 00:00:00 | 00:00:00 | 00:00:00 | |
| KE7DJD | 2026-09-04 23:48:15 | 41.54769 | -114.98852 | 28° | 77km/h | 17301m | 9.6m/s | -53.9°C | 0% | 0hPa | 0V | 00:00:00 | 00:00:00 | 00:00:00 | |
| KE7DJD | 2026-09-04 23:47:55 | 41.54435 | -114.99114 | 21° | 66km/h | 17175m | 5.2m/s | -53.6°C | 0% | 0hPa | 0V | 00:00:00 | 00:00:00 | 00:00:00 | |
| KE7DJD | 2026-09-04 23:47:35 | 41.54113 | -114.99303 | 10° | 51km/h | 17074m | 5.3m/s | -54.3°C | 0% | 0hPa | 0V | 00:00:00 | 00:00:00 | 00:00:00 | |
| KE7DJD | 2026-09-04 23:47:14 | 41.53813 | -114.99486 | 42° | 46km/h | 16955m | 5.0m/s | -54.5°C | 0% | 0hPa | 0V | 00:00:00 | 00:00:00 | 00:00:00 | |
| KE7DJD | 2026-09-04 23:46:53 | 41.53590 | -114.99731 | 44° | 57km/h | 16855m | 5.5m/s | -54.0°C | 0% | 0hPa | 0V | 00:00:00 | 00:00:00 | 00:00:00 | |
| KE7DJD | 2026-09-04 23:46:33 | 41.53361 | -114.99994 | 36° | 68km/h | 16754m | 3.8m/s | -54.1°C | 0% | 0hPa | 0V | 00:00:00 | 00:00:00 | 00:00:00 | |
| KE7DJD | 2026-09-04 23:46:11 | 41.53125 | -115.00284 | 38° | 71km/h | 16651m | 5.8m/s | -53.8°C | 0% | 0hPa | 0V | 00:00:00 | 00:00:00 | 00:00:00 | |
| KE7DJD | 2026-09-04 23:45:51 | 41.52893 | -115.00571 | 48° | 62km/h | 16558m | 4.2m/s | -53.1°C | 0% | 0hPa | 0V | 00:00:00 | 00:00:00 | 00:00:00 | |
| KE7DJD | 2026-09-04 23:45:31 | 41.52656 | -115.00845 | 43° | 62km/h | 16459m | 4.7m/s | -52.9°C | 0% | 0hPa | 0V | 00:00:00 | 00:00:00 | 00:00:00 | |
| KE7DJD | 2026-09-04 23:45:10 | 41.52455 | -115.01116 | 45° | 55km/h | 16366m | 5.2m/s | -52.2°C | 0% | 0hPa | 0V | 00:00:00 | 00:00:00 | 00:00:00 | |
| KE7DJD | 2026-09-04 23:44:50 | 41.52225 | -115.01384 | 50° | 64km/h | 16269m | 5.5m/s | -51.4°C | 0% | 0hPa | 0V | 00:00:00 | 00:00:00 | 00:00:00 | |
| KE7DJD | 2026-09-04 23:44:29 | 41.52029 | -115.01662 | 45° | 62km/h | 16178m | 4.8m/s | -51.1°C | 0% | 0hPa | 0V | 00:00:00 | 00:00:00 | 00:00:00 | |
| KE7DJD | 2026-09-04 23:44:09 | 41.51808 | -115.01966 | 36° | 53km/h | 16081m | 4.7m/s | -51.4°C | 0% | 0hPa | 0V | 00:00:00 | 00:00:00 | 00:00:00 | |
| KE7DJD | 2026-09-04 23:43:48 | 41.51595 | -115.02245 | 36° | 75km/h | 15993m | 4.4m/s | -51.9°C | 0% | 0hPa | 0V | 00:00:00 | 00:00:00 | 00:00:00 | |
| KE7DJD | 2026-09-04 23:43:27 | 41.51314 | -115.02551 | 32° | 77km/h | 15888m | 4.6m/s | -52.4°C | 0% | 0hPa | 0V | 00:00:00 | 00:00:00 | 00:00:00 | |
| KE7DJD | 2026-09-04 23:43:07 | 41.51014 | -115.02780 | 20° | 66km/h | 15785m | 5.6m/s | -52.1°C | 0% | 0hPa | 0V | 00:00:00 | 00:00:00 | 00:00:00 | |
| KE7DJD | 2026-09-04 23:42:47 | 41.50709 | -115.02966 | 21° | 66km/h | 15673m | 4.9m/s | -51.0°C | 0% | 0hPa | 0V | 00:00:00 | 00:00:00 | 00:00:00 | |
| KE7DJD | 2026-09-04 23:42:26 | 41.50421 | -115.03143 | 32° | 55km/h | 15568m | 4.0m/s | -50.2°C | 0% | 0hPa | 0V | 00:00:00 | 00:00:00 | 00:00:00 | |
| KE7DJD | 2026-09-04 23:42:06 | 41.50117 | -115.03303 | 14° | 66km/h | 15460m | 5.6m/s | -49.4°C | 0% | 0hPa | 0V | 00:00:00 | 00:00:00 | 00:00:00 | |
| KE7DJD | 2026-09-04 23:41:45 | 41.49826 | -115.03411 | 15° | 68km/h | 15356m | 4.5m/s | -48.6°C | 0% | 0hPa | 0V | 00:00:00 | 00:00:00 | 00:00:00 | |
| KE7DJD | 2026-09-04 23:41:25 | 41.49540 | -115.03537 | 9° | 49km/h | 15247m | 5.3m/s | -48.0°C | 0% | 0hPa | 0V | 00:00:00 | 00:00:00 | 00:00:00 | |
| KE7DJD | 2026-09-04 23:41:04 | 41.49264 | -115.03680 | 20° | 53km/h | 15137m | 7.4m/s | -47.8°C | 0% | 0hPa | 0V | 00:00:00 | 00:00:00 | 00:00:00 | |
| KE7DJD | 2026-09-04 23:40:43 | 41.48997 | -115.03912 | 26° | 69km/h | 15028m | 5.0m/s | -48.2°C | 0% | 0hPa | 0V | 00:00:00 | 00:00:00 | 00:00:00 | |
| KE7DJD | 2026-09-04 23:40:23 | 41.48684 | -115.04275 | 45° | 82km/h | 14920m | 4.5m/s | -48.4°C | 0% | 0hPa | 0V | 00:00:00 | 00:00:00 | 00:00:00 | |
| KE7DJD | 2026-09-04 23:40:02 | 41.48318 | -115.04672 | 38° | 97km/h | 14814m | 4.5m/s | -49.6°C | 0% | 0hPa | 0V | 00:00:00 | 00:00:00 | 00:00:00 | |
| KE7DJD | 2026-09-04 23:39:42 | 41.47886 | -115.05143 | 44° | 106km/h | 14685m | 5.7m/s | -49.9°C | 0% | 0hPa | 0V | 00:00:00 | 00:00:00 | 00:00:00 | |
| KE7DJD | 2026-09-04 23:39:19 | 41.47427 | -115.05713 | 40° | 115km/h | 14563m | 5.7m/s | -49.3°C | 0% | 0hPa | 0V | 00:00:00 | 00:00:00 | 00:00:00 | |
| KE7DJD | 2026-09-04 23:38:58 | 41.46963 | -115.06229 | 41° | 106km/h | 14450m | 4.3m/s | -49.4°C | 0% | 0hPa | 0V | 00:00:00 | 00:00:00 | 00:00:00 | |
| KE7DJD | 2026-09-04 23:38:38 | 41.46498 | -115.06703 | 40° | 119km/h | 14347m | 4.3m/s | -49.1°C | 0% | 0hPa | 0V | 00:00:00 | 00:00:00 | 00:00:00 | |
| KE7DJD | 2026-09-04 23:38:18 | 41.46017 | -115.07220 | 35° | 108km/h | 14246m | 3.5m/s | -48.6°C | 0% | 0hPa | 0V | 00:00:00 | 00:00:00 | 00:00:00 | |
| KE7DJD | 2026-09-04 23:37:57 | 41.45573 | -115.07672 | 42° | 104km/h | 14158m | 3.1m/s | -48.7°C | 0% | 0hPa | 0V | 00:00:00 | 00:00:00 | 00:00:00 | |
| KE7DJD | 2026-09-04 23:37:37 | 41.45142 | -115.08147 | 44° | 104km/h | 14067m | 3.4m/s | -48.7°C | 0% | 0hPa | 0V | 00:00:00 | 00:00:00 | 00:00:00 | |
| KE7DJD | 2026-09-04 23:37:16 | 41.44728 | -115.08675 | 43° | 113km/h | 13983m | 4.7m/s | -48.3°C | 0% | 0hPa | 0V | 00:00:00 | 00:00:00 | 00:00:00 | |
| KE7DJD | 2026-09-04 23:36:56 | 41.44307 | -115.09215 | 46° | 119km/h | 13904m | 4.4m/s | -48.1°C | 0% | 0hPa | 0V | 00:00:00 | 00:00:00 | 00:00:00 | |
| KE7DJD | 2026-09-04 23:36:35 | 41.43871 | -115.09770 | 47° | 117km/h | 13825m | 3.0m/s | -48.1°C | 0% | 0hPa | 0V | 00:00:00 | 00:00:00 | 00:00:00 | |
| KE7DJD | 2026-09-04 23:36:15 | 41.43400 | -115.10348 | 46° | 126km/h | 13741m | 4.6m/s | -47.8°C | 0% | 0hPa | 0V | 00:00:00 | 00:00:00 | 00:00:00 | |
| KE7DJD | 2026-09-04 23:35:54 | 41.42960 | -115.10901 | 41° | 111km/h | 13656m | 3.5m/s | -47.3°C | 0% | 0hPa | 0V | 00:00:00 | 00:00:00 | 00:00:00 | |
| KE7DJD | 2026-09-04 23:35:34 | 41.42523 | -115.11490 | 48° | 117km/h | 13563m | 4.0m/s | -47.1°C | 0% | 0hPa | 0V | 00:00:00 | 00:00:00 | 00:00:00 | |
| KE7DJD | 2026-09-04 23:35:14 | 41.42135 | -115.12046 | 50° | 113km/h | 13472m | 4.5m/s | -47.4°C | 0% | 0hPa | 0V | 00:00:00 | 00:00:00 | 00:00:00 | |
| KE7DJD | 2026-09-04 23:34:53 | 41.41706 | -115.12656 | 50° | 119km/h | 13369m | 5.5m/s | -48.2°C | 0% | 0hPa | 0V | 00:00:00 | 00:00:00 | 00:00:00 | |
| KE7DJD | 2026-09-04 23:34:31 | 41.41280 | -115.13335 | 50° | 131km/h | 13262m | 5.6m/s | -47.4°C | 0% | 0hPa | 0V | 00:00:00 | 00:00:00 | 00:00:00 | |
| KE7DJD | 2026-09-04 23:34:11 | 41.40833 | -115.13993 | 44° | 131km/h | 13153m | 4.9m/s | -46.8°C | 0% | 0hPa | 0V | 00:00:00 | 00:00:00 | 00:00:00 | |
| KE7DJD | 2026-09-04 23:33:51 | 41.40338 | -115.14654 | 44° | 133km/h | 13043m | 5.4m/s | -46.2°C | 0% | 0hPa | 0V | 00:00:00 | 00:00:00 | 00:00:00 | |
| KE7DJD | 2026-09-04 23:33:30 | 41.39820 | -115.15262 | 40° | 128km/h | 12945m | 4.4m/s | -45.6°C | 0% | 0hPa | 0V | 00:00:00 | 00:00:00 | 00:00:00 | |
| KE7DJD | 2026-09-04 23:33:09 | 41.39258 | -115.15891 | 38° | 144km/h | 12851m | 4.7m/s | -45.1°C | 0% | 0hPa | 0V | 00:00:00 | 00:00:00 | 00:00:00 | |
| KE7DJD | 2026-09-04 23:32:49 | 41.38708 | -115.16486 | 43° | 141km/h | 12771m | 3.2m/s | -45.0°C | 0% | 0hPa | 0V | 00:00:00 | 00:00:00 | 00:00:00 | |
| KE7DJD | 2026-09-04 23:32:29 | 41.38118 | -115.17120 | 38° | 135km/h | 12697m | 2.9m/s | -45.5°C | 0% | 0hPa | 0V | 00:00:00 | 00:00:00 | 00:00:00 | |
| KE7DJD | 2026-09-04 23:32:08 | 41.37544 | -115.17700 | 41° | 144km/h | 12639m | 3.5m/s | -45.9°C | 0% | 0hPa | 0V | 00:00:00 | 00:00:00 | 00:00:00 | |
| KE7DJD | 2026-09-04 23:31:48 | 41.36966 | -115.18340 | 41° | 141km/h | 12583m | 1.6m/s | -46.7°C | 0% | 0hPa | 0V | 00:00:00 | 00:00:00 | 00:00:00 | |
| KE7DJD | 2026-09-04 23:31:27 | 41.36415 | -115.18986 | 40° | 144km/h | 12532m | 1.2m/s | -46.9°C | 0% | 0hPa | 0V | 00:00:00 | 00:00:00 | 00:00:00 | |
| KE7DJD | 2026-09-04 23:31:07 | 41.35822 | -115.19649 | 42° | 159km/h | 12480m | 2.3m/s | -47.0°C | 0% | 0hPa | 0V | 00:00:00 | 00:00:00 | 00:00:00 | |
| KE7DJD | 2026-09-04 23:30:46 | 41.35251 | -115.20298 | 41° | 153km/h | 12430m | 1.9m/s | -47.0°C | 0% | 0hPa | 0V | 00:00:00 | 00:00:00 | 00:00:00 | |
| KE7DJD | 2026-09-04 23:30:26 | 41.34674 | -115.20989 | 45° | 135km/h | 12372m | 2.5m/s | -47.0°C | 0% | 0hPa | 0V | 00:00:00 | 00:00:00 | 00:00:00 | |
| KE7DJD | 2026-09-04 23:30:05 | 41.34104 | -115.21705 | 43° | 151km/h | 12306m | 4.3m/s | -46.7°C | 0% | 0hPa | 0V | 00:00:00 | 00:00:00 | 00:00:00 | |
| KE7DJD | 2026-09-04 23:29:45 | 41.33545 | -115.22384 | 43° | 153km/h | 12230m | 3.7m/s | -46.3°C | 0% | 0hPa | 0V | 00:00:00 | 00:00:00 | 00:00:00 | |
| KE7DJD | 2026-09-04 23:29:25 | 41.32993 | -115.23071 | 43° | 141km/h | 12150m | 2.4m/s | -45.8°C | 0% | 0hPa | 0V | 00:00:00 | 00:00:00 | 00:00:00 | |
| KE7DJD | 2026-09-04 23:29:04 | 41.32400 | -115.23781 | 45° | 151km/h | 12060m | 4.9m/s | -45.3°C | 0% | 0hPa | 0V | 00:00:00 | 00:00:00 | 00:00:00 | |
| KE7DJD | 2026-09-04 23:28:43 | 41.31794 | -115.24473 | 41° | 148km/h | 11962m | 5.6m/s | -44.8°C | 0% | 0hPa | 0V | 00:00:00 | 00:00:00 | 00:00:00 | |
| KE7DJD | 2026-09-04 23:28:22 | 41.31207 | -115.25182 | 42° | 148km/h | 11860m | 5.4m/s | -43.8°C | 0% | 0hPa | 0V | 00:00:00 | 00:00:00 | 00:00:00 | |
| KE7DJD | 2026-09-04 23:28:02 | 41.30661 | -115.25873 | 46° | 146km/h | 11763m | 4.3m/s | -43.2°C | 0% | 0hPa | 0V | 00:00:00 | 00:00:00 | 00:00:00 | |
| KE7DJD | 2026-09-04 23:27:41 | 41.30125 | -115.26597 | 45° | 150km/h | 11666m | 4.3m/s | -42.4°C | 0% | 0hPa | 0V | 00:00:00 | 00:00:00 | 00:00:00 | |
| KE7DJD | 2026-09-04 23:27:21 | 41.29543 | -115.27347 | 45° | 155km/h | 11570m | 5.1m/s | -41.9°C | 0% | 0hPa | 0V | 00:00:00 | 00:00:00 | 00:00:00 | |
| KE7DJD | 2026-09-04 23:27:00 | 41.28979 | -115.28058 | 44° | 155km/h | 11479m | 3.6m/s | -41.4°C | 0% | 0hPa | 0V | 00:00:00 | 00:00:00 | 00:00:00 | |
| KE7DJD | 2026-09-04 23:26:40 | 41.28397 | -115.28795 | 42° | 148km/h | 11388m | 3.6m/s | -40.7°C | 0% | 0hPa | 0V | 00:00:00 | 00:00:00 | 00:00:00 | |
| KE7DJD | 2026-09-04 23:26:19 | 41.27843 | -115.29496 | 46° | 146km/h | 11303m | 4.2m/s | -40.0°C | 0% | 0hPa | 0V | 00:00:00 | 00:00:00 | 00:00:00 | |
| KE7DJD | 2026-09-04 23:25:59 | 41.27255 | -115.30258 | 45° | 162km/h | 11219m | 3.6m/s | -39.5°C | 0% | 0hPa | 0V | 00:00:00 | 00:00:00 | 00:00:00 | |
| KE7DJD | 2026-09-04 23:25:38 | 41.26686 | -115.30965 | 43° | 155km/h | 11142m | 4.0m/s | -39.1°C | 0% | 0hPa | 0V | 00:00:00 | 00:00:00 | 00:00:00 | |
| KE7DJD | 2026-09-04 23:25:18 | 41.26077 | -115.31707 | 44° | 162km/h | 11063m | 4.1m/s | -38.8°C | 0% | 0hPa | 0V | 00:00:00 | 00:00:00 | 00:00:00 | |
| KE7DJD | 2026-09-04 23:24:57 | 41.25477 | -115.32394 | 40° | 159km/h | 10992m | 3.1m/s | -38.8°C | 0% | 0hPa | 0V | 00:00:00 | 00:00:00 | 00:00:00 | |
| KE7DJD | 2026-09-04 23:24:37 | 41.24826 | -115.33125 | 43° | 157km/h | 10919m | 3.0m/s | -38.3°C | 0% | 0hPa | 0V | 00:00:00 | 00:00:00 | 00:00:00 | |
| KE7DJD | 2026-09-04 23:24:17 | 41.24202 | -115.33800 | 40° | 164km/h | 10854m | 2.7m/s | -37.8°C | 0% | 0hPa | 0V | 00:00:00 | 00:00:00 | 00:00:00 | |
| KE7DJD | 2026-09-04 23:23:56 | 41.23550 | -115.34523 | 39° | 157km/h | 10780m | 3.5m/s | -37.5°C | 0% | 0hPa | 0V | 00:00:00 | 00:00:00 | 00:00:00 | |
| KE7DJD | 2026-09-04 23:23:34 | 41.22912 | -115.35249 | 39° | 157km/h | 10706m | 3.5m/s | -36.9°C | 0% | 0hPa | 0V | 00:00:00 | 00:00:00 | 00:00:00 | |
| KE7DJD | 2026-09-04 23:23:14 | 41.22308 | -115.35950 | 42° | 164km/h | 10630m | 3.3m/s | -36.5°C | 0% | 0hPa | 0V | 00:00:00 | 00:00:00 | 00:00:00 | |
| KE7DJD | 2026-09-04 23:22:53 | 41.21679 | -115.36699 | 42° | 159km/h | 10548m | 4.5m/s | -35.7°C | 0% | 0hPa | 0V | 00:00:00 | 00:00:00 | 00:00:00 | |
| KE7DJD | 2026-09-04 23:22:33 | 41.21077 | -115.37400 | 45° | 161km/h | 10469m | 3.8m/s | -35.1°C | 0% | 0hPa | 0V | 00:00:00 | 00:00:00 | 00:00:00 | |
| KE7DJD | 2026-09-04 23:22:13 | 41.20436 | -115.38155 | 44° | 159km/h | 10385m | 3.0m/s | -34.5°C | 0% | 0hPa | 0V | 00:00:00 | 00:00:00 | 00:00:00 | |
| KE7DJD | 2026-09-04 23:21:52 | 41.19832 | -115.38863 | 43° | 162km/h | 10303m | 4.5m/s | -33.9°C | 0% | 0hPa | 0V | 00:00:00 | 00:00:00 | 00:00:00 | |
| KE7DJD | 2026-09-04 23:21:32 | 41.19202 | -115.39628 | 42° | 162km/h | 10218m | 4.2m/s | -33.5°C | 0% | 0hPa | 0V | 00:00:00 | 00:00:00 | 00:00:00 | |
| KE7DJD | 2026-09-04 23:21:11 | 41.18599 | -115.40366 | 44° | 159km/h | 10135m | 4.6m/s | -32.6°C | 0% | 0hPa | 0V | 00:00:00 | 00:00:00 | 00:00:00 | |
| KE7DJD | 2026-09-04 23:20:51 | 41.17977 | -115.41139 | 45° | 164km/h | 10048m | 3.1m/s | -32.0°C | 0% | 0hPa | 0V | 00:00:00 | 00:00:00 | 00:00:00 | |
| KE7DJD | 2026-09-04 23:20:30 | 41.17386 | -115.41876 | 44° | 161km/h | 9970m | 3.8m/s | -31.3°C | 0% | 0hPa | 0V | 00:00:00 | 00:00:00 | 00:00:00 | |
| KE7DJD | 2026-09-04 23:20:10 | 41.16762 | -115.42657 | 45° | 155km/h | 9889m | 3.7m/s | -30.6°C | 0% | 0hPa | 0V | 00:00:00 | 00:00:00 | 00:00:00 | |
| KE7DJD | 2026-09-04 23:19:49 | 41.16170 | -115.43396 | 45° | 161km/h | 9811m | 4.0m/s | -30.0°C | 0% | 0hPa | 0V | 00:00:00 | 00:00:00 | 00:00:00 | |
| KE7DJD | 2026-09-04 23:19:29 | 41.15552 | -115.44140 | 43° | 159km/h | 9730m | 4.1m/s | -29.8°C | 0% | 0hPa | 0V | 00:00:00 | 00:00:00 | 00:00:00 | |
| KE7DJD | 2026-09-04 23:19:08 | 41.14963 | -115.44850 | 45° | 153km/h | 9655m | 4.4m/s | -29.6°C | 0% | 0hPa | 0V | 00:00:00 | 00:00:00 | 00:00:00 | |
| KE7DJD | 2026-09-04 23:18:48 | 41.14370 | -115.45553 | 46° | 148km/h | 9574m | 3.5m/s | -29.0°C | 0% | 0hPa | 0V | 00:00:00 | 00:00:00 | 00:00:00 | |
| KE7DJD | 2026-09-04 23:18:27 | 41.13791 | -115.46277 | 47° | 146km/h | 9495m | 4.8m/s | -28.5°C | 0% | 0hPa | 0V | 00:00:00 | 00:00:00 | 00:00:00 | |
| KE7DJD | 2026-09-04 23:18:06 | 41.13226 | -115.47000 | 45° | 141km/h | 9417m | 3.6m/s | -27.8°C | 0% | 0hPa | 0V | 00:00:00 | 00:00:00 | 00:00:00 | |
| KE7DJD | 2026-09-04 23:17:46 | 41.12682 | -115.47677 | 45° | 146km/h | 9337m | 5.3m/s | -27.2°C | 0% | 0hPa | 0V | 00:00:00 | 00:00:00 | 00:00:00 | |
| KE7DJD | 2026-09-04 23:17:25 | 41.12129 | -115.48339 | 41° | 151km/h | 9261m | 4.4m/s | -26.6°C | 0% | 0hPa | 0V | 00:00:00 | 00:00:00 | 00:00:00 | |
| KE7DJD | 2026-09-04 23:17:05 | 41.11538 | -115.49026 | 43° | 141km/h | 9180m | 4.1m/s | -26.1°C | 0% | 0hPa | 0V | 00:00:00 | 00:00:00 | 00:00:00 | |
| KE7DJD | 2026-09-04 23:16:44 | 41.10988 | -115.49674 | 45° | 139km/h | 9097m | 3.3m/s | -25.7°C | 0% | 0hPa | 0V | 00:00:00 | 00:00:00 | 00:00:00 | |
| KE7DJD | 2026-09-04 23:16:24 | 41.10406 | -115.50337 | 42° | 150km/h | 9010m | 3.2m/s | -25.3°C | 0% | 0hPa | 0V | 00:00:00 | 00:00:00 | 00:00:00 | |
| KE7DJD | 2026-09-04 23:16:03 | 41.09839 | -115.50977 | 43° | 141km/h | 8924m | 3.1m/s | -24.8°C | 0% | 0hPa | 0V | 00:00:00 | 00:00:00 | 00:00:00 | |
| KE7DJD | 2026-09-04 23:15:43 | 41.09262 | -115.51642 | 43° | 148km/h | 8836m | 4.4m/s | -24.1°C | 0% | 0hPa | 0V | 00:00:00 | 00:00:00 | 00:00:00 | |
| KE7DJD | 2026-09-04 23:15:22 | 41.08716 | -115.52264 | 43° | 139km/h | 8751m | 5.0m/s | -23.6°C | 0% | 0hPa | 0V | 00:00:00 | 00:00:00 | 00:00:00 | |
| KE7DJD | 2026-09-04 23:14:41 | 41.07574 | -115.53572 | 41° | 144km/h | 8573m | 3.8m/s | -22.7°C | 0% | 0hPa | 0V | 00:00:00 | 00:00:00 | 00:00:00 | |
| KE7DJD | 2026-09-04 23:14:21 | 41.07030 | -115.54176 | 41° | 144km/h | 8486m | 5.3m/s | -22.0°C | 0% | 0hPa | 0V | 00:00:00 | 00:00:00 | 00:00:00 | |
| KE7DJD | 2026-09-04 23:14:00 | 41.06490 | -115.54781 | 40° | 137km/h | 8398m | 4.8m/s | -21.2°C | 0% | 0hPa | 0V | 00:00:00 | 00:00:00 | 00:00:00 | |
| KE7DJD | 2026-09-04 23:13:40 | 41.05929 | -115.55418 | 42° | 144km/h | 8308m | 3.2m/s | -20.4°C | 0% | 0hPa | 0V | 00:00:00 | 00:00:00 | 00:00:00 | |
| KE7DJD | 2026-09-04 23:13:18 | 41.05371 | -115.56032 | 44° | 144km/h | 8220m | 5.1m/s | -19.7°C | 0% | 0hPa | 0V | 00:00:00 | 00:00:00 | 00:00:00 | |
| KE7DJD | 2026-09-04 23:12:58 | 41.04819 | -115.56662 | 43° | 137km/h | 8130m | 5.0m/s | -18.8°C | 0% | 0hPa | 0V | 00:00:00 | 00:00:00 | 00:00:00 | |
| KE7DJD | 2026-09-04 23:12:38 | 41.04298 | -115.57253 | 41° | 135km/h | 8042m | 4.9m/s | -18.0°C | 0% | 0hPa | 0V | 00:00:00 | 00:00:00 | 00:00:00 | |
| KE7DJD | 2026-09-04 23:12:17 | 41.03788 | -115.57848 | 42° | 137km/h | 7956m | 3.4m/s | -17.2°C | 0% | 0hPa | 0V | 00:00:00 | 00:00:00 | 00:00:00 | |
| KE7DJD | 2026-09-04 23:11:57 | 41.03261 | -115.58483 | 44° | 128km/h | 7864m | 4.3m/s | -16.5°C | 0% | 0hPa | 0V | 00:00:00 | 00:00:00 | 00:00:00 | |
| KE7DJD | 2026-09-04 23:11:36 | 41.02774 | -115.59073 | 39° | 131km/h | 7781m | 3.5m/s | -15.8°C | 0% | 0hPa | 0V | 00:00:00 | 00:00:00 | 00:00:00 | |
| KE7DJD | 2026-09-04 23:11:16 | 41.02269 | -115.59650 | 39° | 117km/h | 7694m | 3.8m/s | -15.6°C | 0% | 0hPa | 0V | 00:00:00 | 00:00:00 | 00:00:00 | |
| KE7DJD | 2026-09-04 23:10:55 | 41.01802 | -115.60181 | 45° | 115km/h | 7615m | 4.3m/s | -15.0°C | 0% | 0hPa | 0V | 00:00:00 | 00:00:00 | 00:00:00 | |
| KE7DJD | 2026-09-04 23:10:35 | 41.01324 | -115.60740 | 43° | 124km/h | 7534m | 3.0m/s | -14.6°C | 0% | 0hPa | 0V | 00:00:00 | 00:00:00 | 00:00:00 | |
| KE7DJD | 2026-09-04 23:10:14 | 41.00867 | -115.61257 | 38° | 115km/h | 7457m | 2.7m/s | -14.1°C | 0% | 0hPa | 0V | 00:00:00 | 00:00:00 | 00:00:00 | |
| KE7DJD | 2026-09-04 23:09:54 | 41.00390 | -115.61758 | 36° | 113km/h | 7378m | 1.9m/s | -13.5°C | 0% | 0hPa | 0V | 00:00:00 | 00:00:00 | 00:00:00 | |
| KE7DJD | 2026-09-04 23:09:33 | 40.99921 | -115.62247 | 38° | 104km/h | 7307m | 2.3m/s | -12.9°C | 0% | 0hPa | 0V | 00:00:00 | 00:00:00 | 00:00:00 | |
| KE7DJD | 2026-09-04 23:07:43 | 40.97633 | -115.64640 | 43° | 99km/h | 6953m | 3.5m/s | -10.9°C | 0% | 0hPa | 0V | 00:00:00 | 00:00:00 | 00:00:00 | |
| KE7DJD | 2026-09-04 23:07:23 | 40.97238 | -115.65102 | 41° | 100km/h | 6883m | 3.6m/s | -10.4°C | 0% | 0hPa | 0V | 00:00:00 | 00:00:00 | 00:00:00 | |
| KE7DJD | 2026-09-04 23:07:01 | 40.96841 | -115.65550 | 42° | 97km/h | 6813m | 3.0m/s | -9.8°C | 0% | 0hPa | 0V | 00:00:00 | 00:00:00 | 00:00:00 | |
| KE7DJD | 2026-09-04 23:06:41 | 40.96452 | -115.65981 | 40° | 104km/h | 6747m | 4.0m/s | -9.3°C | 0% | 0hPa | 0V | 00:00:00 | 00:00:00 | 00:00:00 | |
| KE7DJD | 2026-09-04 23:06:20 | 40.96049 | -115.66423 | 40° | 97km/h | 6672m | 3.5m/s | -8.8°C | 0% | 0hPa | 0V | 00:00:00 | 00:00:00 | 00:00:00 | |
| KE7DJD | 2026-09-04 23:06:00 | 40.95667 | -115.66846 | 38° | 108km/h | 6600m | 5.1m/s | -8.3°C | 0% | 0hPa | 0V | 00:00:00 | 00:00:00 | 00:00:00 | |
| KE7DJD | 2026-09-04 23:05:40 | 40.95261 | -115.67322 | 47° | 95km/h | 6515m | 5.9m/s | -7.4°C | 0% | 0hPa | 0V | 00:00:00 | 00:00:00 | 00:00:00 | |
| KE7DJD | 2026-09-04 23:05:20 | 40.94886 | -115.67762 | 42° | 93km/h | 6433m | 3.4m/s | -6.6°C | 0% | 0hPa | 0V | 00:00:00 | 00:00:00 | 00:00:00 | |
| KE7DJD | 2026-09-04 23:04:59 | 40.94500 | -115.68224 | 44° | 102km/h | 6348m | 3.3m/s | -5.8°C | 0% | 0hPa | 0V | 00:00:00 | 00:00:00 | 00:00:00 | |
| KE7DJD | 2026-09-04 23:04:37 | 40.94101 | -115.68677 | 39° | 91km/h | 6260m | 5.0m/s | -5.0°C | 0% | 0hPa | 0V | 00:00:00 | 00:00:00 | 00:00:00 | |
| KE7DJD | 2026-09-04 23:04:17 | 40.93711 | -115.69120 | 46° | 100km/h | 6177m | 3.6m/s | -4.2°C | 0% | 0hPa | 0V | 00:00:00 | 00:00:00 | 00:00:00 | |
| KE7DJD | 2026-09-04 23:03:55 | 40.93304 | -115.69554 | 37° | 100km/h | 6083m | 4.8m/s | -3.6°C | 0% | 0hPa | 0V | 00:00:00 | 00:00:00 | 00:00:00 |